GFSWCAN_sfc_wetblb_171.txt.gz
Wetbulb
42.91 43.09 43.09 43.06 43.11 43.22 43.40 43.61 43.67 43.88 43.97 44.03 44.09 44.35 44.82 45.37 45.64 45.84 44.18 46.42 42.52 37.07 38.32 37.20 36.73 33.42 32.50 31.22 29.19 30.09 30.72 29.57 27.97 26.64 25.64 24.35 22.44 23.74 21.88 21.87 23.32 23.93 22.16 21.46 21.36 19.45 17.78 30.93 29.44 25.90 30.72 31.12 31.88 33.90
42.30 42.46 42.72 42.95 42.86 42.96 43.11 43.13 43.20 43.44 43.57 43.51 43.67 43.77 44.37 44.96 45.11 47.72 42.61 45.87 46.06 40.54 39.13 39.80 38.78 37.74 36.07 34.60 32.45 29.63 30.71 29.22 31.13 27.15 25.52 24.69 23.97 21.45 22.35 22.15 23.52 23.22 26.85 25.21 25.96 26.22 31.38 29.85 31.33 30.87 31.78 31.90 31.88 33.69
41.66 42.02 42.28 42.39 42.59 42.80 42.80 42.86 42.88 42.97 43.41 43.38 43.49 43.52 43.90 44.42 45.08 46.01 43.64 44.69 44.46 39.96 38.39 38.04 36.93 37.32 37.86 35.79 36.76 32.25 30.97 32.66 30.85 31.27 28.07 26.61 25.61 25.58 22.56 22.05 21.57 26.13 28.84 27.54 27.30 28.22 28.75 29.81 29.96 30.19 30.40 31.59 33.36 33.77
40.92 41.10 41.58 42.11 42.49 42.86 42.98 42.64 42.49 42.80 43.30 43.38 43.46 43.20 43.56 44.04 44.46 44.84 44.27 45.74 44.27 41.41 34.98 33.69 36.89 35.45 35.98 36.33 36.09 35.60 34.15 33.28 32.54 31.42 28.66 27.26 26.46 28.10 25.52 26.22 24.30 28.18 28.42 27.67 27.24 30.40 29.19 29.36 29.38 30.19 29.85 32.07 33.23 33.39
40.68 40.63 40.94 41.21 41.53 41.97 42.43 42.53 42.10 42.74 43.34 43.27 43.06 42.72 43.65 43.78 43.60 43.60 45.79 46.23 46.49 40.77 34.70 32.17 35.23 34.98 35.21 36.09 35.22 34.89 34.44 32.69 30.94 29.52 28.14 27.67 27.48 27.31 26.36 25.91 23.45 27.25 28.34 27.79 28.46 32.46 30.68 30.48 31.10 31.00 29.81 31.09 32.57 32.53
40.51 40.61 40.71 40.82 41.11 41.37 41.94 42.10 41.63 42.22 43.01 43.03 42.56 42.32 43.14 43.38 43.11 43.17 35.50 45.00 46.44 44.26 36.94 31.35 33.84 32.41 33.51 34.45 33.86 33.17 33.39 32.06 31.12 30.42 28.47 28.08 29.48 29.08 25.80 25.33 29.64 28.97 30.39 31.36 31.29 30.90 32.51 33.02 31.98 31.14 30.00 31.11 31.61 32.19
40.22 40.38 40.56 40.57 40.63 40.87 41.63 41.65 41.29 41.58 42.20 42.78 42.61 42.33 43.29 43.73 41.12 37.30 37.42 42.61 47.21 46.03 37.40 31.10 30.52 33.12 33.82 32.46 32.12 32.34 32.07 31.28 31.53 30.19 29.20 29.16 29.16 29.91 27.36 26.16 31.43 30.24 31.41 31.49 31.78 31.97 32.34 32.18 31.66 32.50 30.56 30.90 34.22 31.86
40.20 40.04 40.10 40.43 40.60 40.61 41.19 41.32 41.03 41.19 41.78 42.61 42.20 43.20 44.04 44.36 43.18 40.50 44.57 47.42 47.10 42.25 39.89 30.33 29.49 31.76 34.22 29.73 29.78 30.34 31.01 30.63 30.22 28.92 28.86 28.99 28.55 27.92 26.66 31.58 29.59 30.29 31.43 31.60 32.09 31.55 31.45 31.34 32.02 32.25 31.07 30.87 30.27 30.91
39.75 39.92 40.23 40.36 40.31 40.26 40.76 41.06 41.09 40.96 41.90 41.94 41.81 43.85 42.31 41.53 39.10 41.88 47.16 47.29 45.36 40.53 32.73 32.31 27.26 26.58 33.95 30.48 31.74 31.12 30.06 26.96 28.74 27.58 28.21 29.41 26.71 25.29 30.67 31.62 30.66 29.14 29.22 30.03 30.31 30.42 31.04 30.64 30.98 31.17 31.58 31.04 30.49 30.16
40.04 39.96 39.84 40.19 40.10 39.92 40.29 40.65 40.86 40.94 41.61 41.46 40.31 37.21 34.85 40.18 44.42 46.16 39.78 34.41 37.33 38.34 34.95 30.54 28.41 28.73 32.93 30.36 29.85 30.09 29.01 26.86 24.36 27.63 28.52 27.57 26.83 31.05 30.78 29.80 29.60 28.89 28.56 27.36 27.46 29.13 29.64 28.87 29.93 29.83 30.87 32.31 32.65 32.40
40.07 40.06 39.86 39.73 40.05 40.03 39.83 40.00 40.43 41.13 40.57 37.37 33.80 32.62 37.17 42.37 38.24 34.82 30.16 31.36 31.02 30.81 33.96 28.91 27.51 29.42 33.38 28.73 29.51 29.86 27.38 27.08 18.22 23.14 25.09 23.35 24.82 28.29 28.78 28.36 29.02 28.59 28.01 28.05 28.81 29.83 30.42 30.16 29.86 30.07 30.28 31.30 32.23 32.31
39.77 40.16 39.91 39.63 39.63 39.64 39.67 39.96 40.29 35.65 33.26 35.82 35.76 37.95 35.48 32.70 31.25 29.55 28.85 30.64 30.33 29.13 32.07 27.80 29.45 31.59 31.45 32.29 29.26 28.61 25.72 25.14 15.85 28.41 26.31 22.12 24.70 27.67 27.40 27.31 27.22 27.60 28.23 28.96 29.42 29.45 29.82 30.14 30.72 30.48 30.16 30.77 31.41 32.30
39.15 38.99 39.38 39.79 39.67 39.56 39.70 39.76 39.99 39.27 39.10 38.16 33.38 29.34 29.70 30.20 25.37 25.84 24.44 27.41 27.34 31.55 30.36 29.84 29.07 31.80 31.68 31.50 27.68 27.34 22.76 22.33 27.93 24.66 22.27 21.36 26.48 26.64 26.15 26.10 26.38 27.40 28.65 28.51 28.87 29.21 29.94 29.95 30.52 29.87 30.61 31.18 31.85 31.32
38.95 38.61 39.33 38.78 39.27 39.21 39.47 39.35 39.07 37.87 37.12 31.97 27.91 23.94 25.29 25.18 26.46 26.46 24.15 29.45 29.39 32.41 31.60 32.06 29.51 31.66 32.46 31.37 29.25 22.55 25.76 26.02 23.33 22.23 20.04 19.23 23.48 25.03 26.06 26.51 26.60 26.97 29.09 28.30 27.43 26.96 27.92 26.90 27.60 29.03 30.38 30.61 30.48 29.84
39.28 38.98 38.46 38.48 38.23 39.06 38.65 38.68 39.02 37.27 34.78 28.63 27.62 22.14 24.03 28.26 25.78 28.53 31.32 31.51 32.03 34.54 32.60 31.41 31.34 32.51 31.22 29.12 27.27 23.08 20.95 18.76 24.41 22.37 20.91 21.65 24.13 25.13 25.98 26.86 26.28 26.65 27.77 28.27 28.21 27.39 25.66 24.62 25.82 27.86 28.49 29.12 29.76 28.94
39.19 38.24 36.18 39.66 38.71 38.60 38.05 35.95 33.56 34.76 31.11 28.08 26.72 23.87 26.67 25.99 24.08 29.42 31.60 31.47 33.11 34.56 32.54 32.42 29.48 27.51 27.90 26.57 17.83 16.07 17.36 16.15 20.52 21.17 23.49 25.36 25.66 26.27 27.98 28.72 27.65 27.37 28.14 28.40 27.95 28.38 27.94 27.59 27.82 27.35 27.80 28.23 28.41 28.57
36.52 30.08 37.92 39.85 38.92 36.73 36.56 31.52 29.08 23.95 25.31 24.39 23.36 27.90 25.93 26.30 25.95 28.31 30.23 31.41 35.37 33.44 29.63 27.41 25.71 22.85 27.22 18.02 18.38 18.61 16.63 20.54 24.28 23.86 25.62 28.05 29.30 29.02 28.77 28.62 28.73 29.12 29.46 27.79 27.26 27.26 26.76 27.77 27.02 27.07 26.75 26.59 26.92 27.49
30.56 31.70 38.95 38.89 33.89 31.49 28.94 26.36 18.70 19.62 20.52 22.73 23.06 23.58 26.39 26.18 25.17 26.40 29.38 32.30 32.93 30.05 26.02 22.66 23.83 15.69 13.80 14.42 21.96 23.76 23.44 24.19 28.30 29.43 28.17 28.20 28.87 29.02 29.54 28.75 28.76 29.47 29.77 28.76 26.46 24.94 26.28 28.00 27.20 26.12 25.45 25.93 25.20 25.71
32.78 33.04 37.24 36.33 32.16 24.16 18.62 18.12 18.25 14.74 20.29 23.87 25.00 25.34 26.19 26.48 26.75 27.22 28.04 30.70 32.56 32.11 29.21 23.37 19.48 14.42 24.38 24.51 24.09 26.36 27.15 26.31 25.45 25.08 25.56 26.77 28.47 28.35 28.22 28.08 27.56 27.30 27.23 27.11 28.90 28.22 27.63 27.08 26.89 27.30 27.01 26.73 26.00 26.08
38.63 37.13 35.99 34.36 30.77 15.23 10.85 15.12 22.73 19.40 19.46 22.41 24.05 22.79 23.82 23.56 24.75 24.96 25.48 25.71 29.37 29.28 26.19 23.97 23.50 26.19 25.78 26.88 28.42 27.26 26.65 25.42 24.44 24.10 25.02 26.67 27.24 25.78 26.96 26.63 27.25 27.59 27.30 27.95 27.67 31.43 29.01 28.60 28.44 27.52 27.82 27.65 26.27 25.72
33.37 29.95 30.51 27.42 17.23 16.81 15.43 14.43 14.90 21.61 23.19 20.82 22.39 21.78 20.05 22.30 21.22 20.14 20.53 24.95 24.02 21.60 22.56 24.31 24.95 25.45 26.73 26.21 26.89 27.05 25.94 26.63 24.98 24.52 24.27 24.29 26.17 25.88 25.12 24.63 24.79 26.65 26.34 26.52 26.48 27.35 28.72 27.52 28.06 27.96 27.27 27.01 26.71 26.45
30.06 30.46 16.23 17.62 9.23 9.03 11.67 17.62 18.18 20.20 17.95 17.13 16.67 16.52 14.39 14.28 16.49 17.83 19.69 21.35 20.16 21.64 24.18 25.01 25.20 26.14 25.80 24.40 24.19 24.66 25.41 25.56 24.79 25.51 27.08 26.81 23.36 21.84 22.53 24.05 22.72 21.67 23.48 24.06 24.93 25.72 26.45 27.64 28.86 27.69 26.88 27.27 27.13 25.17
27.67 21.19 10.25 7.54 8.99 8.22 9.35 14.28 11.34 11.76 8.98 9.68 8.72 8.66 8.63 11.71 13.62 18.37 15.92 18.33 21.41 22.78 23.16 23.55 24.15 25.33 24.49 24.22 23.41 22.73 22.96 23.08 21.94 22.08 22.16 22.57 23.37 23.27 22.39 22.77 22.91 20.50 21.92 23.61 23.07 22.64 22.46 28.75 27.53 26.85 25.48 25.08 23.95 22.13
23.99 9.95 5.18 -0.61 -0.08 6.75 3.95 2.66 6.79 5.80 4.23 5.27 4.13 2.81 6.17 9.19 11.07 13.14 13.13 16.78 20.59 21.67 20.21 20.04 21.92 22.35 21.86 21.14 19.74 21.06 21.81 18.24 19.23 22.19 24.84 24.36 23.73 22.82 22.65 20.24 21.03 21.20 21.92 22.62 20.28 20.22 19.58 22.11 24.44 21.85 20.11 16.26 15.99 16.42
12.17 9.16 5.08 1.36 -4.15 1.61 -1.97 -3.75 -3.72 4.01 1.93 -0.16 0.20 1.33 5.05 5.25 4.01 5.01 9.00 16.67 17.73 18.97 17.69 18.09 19.71 19.94 18.55 19.38 20.61 20.04 21.22 20.83 23.39 23.25 25.13 25.08 24.63 24.39 23.58 23.80 20.71 19.92 19.98 15.93 16.94 16.94 15.40 14.97 15.78 16.29 17.38 17.03 15.64 13.33
3.58 11.46 6.06 4.48 6.47 2.61 5.12 -0.50 -3.84 -3.11 -3.24 -1.89 -0.66 2.27 2.43 2.71 3.38 2.71 9.08 11.96 16.59 17.75 16.80 16.33 18.30 21.23 21.81 23.02 19.33 21.35 22.70 23.95 24.35 23.51 24.11 24.17 23.60 24.01 21.55 22.35 21.30 17.75 17.70 15.79 16.58 14.31 15.13 15.96 16.31 15.21 15.01 15.39 22.82 12.97
2.51 3.58 9.34 18.62 12.70 9.94 8.13 8.61 8.76 2.77 -5.14 -0.85 -2.14 -0.65 0.27 2.70 3.87 8.98 13.88 15.72 16.75 16.92 16.29 16.92 19.16 21.18 22.13 20.41 21.04 22.18 21.28 24.05 24.52 23.28 21.81 20.34 20.34 21.73 23.21 22.06 19.75 20.32 17.31 14.43 15.99 16.09 16.21 15.04 13.86 12.37 10.81 9.07 8.57 7.62
7.55 8.54 3.81 8.10 7.81 6.99 -0.24 -1.08 -1.45 -0.21 1.49 4.60 5.35 -0.95 -0.05 1.06 6.68 13.09 13.40 15.25 12.88 8.80 9.35 13.02 18.78 18.12 17.51 18.78 18.56 17.76 15.74 16.69 18.20 16.79 18.91 19.93 18.66 16.64 14.09 15.52 20.67 25.50 17.66 16.17 14.89 14.05 13.87 12.40 10.76 8.31 7.51 6.31 3.98 4.50
8.17 12.21 11.72 4.21 2.36 4.36 4.52 4.50 5.90 11.10 13.74 7.45 4.05 4.41 4.62 10.66 10.71 10.31 14.78 13.62 8.64 3.59 5.67 9.59 10.59 15.32 11.14 12.76 11.90 11.38 13.21 15.35 14.41 13.28 15.62 14.23 13.25 13.41 11.54 10.77 10.77 11.31 12.65 17.58 25.10 17.10 10.72 9.67 7.28 5.70 1.41 2.68 1.39 -1.68
4.90 7.70 5.47 0.28 1.46 3.09 5.84 7.87 6.59 10.14 15.61 15.91 17.13 13.74 13.05 11.98 12.85 13.92 11.66 9.52 6.67 5.00 4.60 5.89 8.99 7.20 9.06 10.02 7.73 14.29 16.84 14.85 16.86 20.50 16.76 12.88 11.78 11.08 6.22 6.63 8.78 7.42 8.30 10.78 10.56 8.98 18.46 7.58 7.86 1.53 2.50 2.34 1.59 0.90
5.73 2.59 2.56 4.06 3.25 4.48 5.47 5.82 7.79 15.60 10.90 8.32 9.90 8.11 6.84 7.88 12.23 13.21 8.23 7.66 5.46 3.91 5.42 7.28 11.01 12.90 14.56 11.41 7.59 9.12 14.47 16.25 16.02 16.92 16.73 15.18 12.78 11.00 10.06 7.86 7.81 7.68 9.03 9.99 8.18 5.50 1.37 0.32 -1.36 -0.82 1.23 -0.04 -0.13 1.58
0.26 -5.35 -2.88 1.69 0.13 -1.02 -2.69 -2.40 -1.67 3.04 6.49 8.61 7.90 7.52 6.90 7.18 4.46 5.19 10.39 3.10 3.40 5.00 12.91 10.68 10.69 12.93 16.94 19.07 17.36 20.53 21.35 16.40 16.03 15.35 13.41 13.73 11.87 10.06 10.22 8.30 7.00 7.17 7.94 7.22 5.10 2.51 0.66 -0.28 -1.98 -2.31 -2.55 -5.09 -4.67 -4.46
-12.18 -11.54 -12.74 -8.47 -5.12 -4.60 -5.70 -5.51 -4.75 -2.69 -0.07 -0.33 2.86 4.98 5.02 8.09 5.77 7.91 11.16 9.95 8.79 10.10 11.32 12.75 14.22 15.28 15.47 16.69 16.37 19.15 21.32 20.41 19.89 25.57 26.44 25.55 24.51 18.34 10.29 7.80 8.56 8.22 8.18 7.35 6.57 3.80 2.17 -2.53 -3.13 -5.02 -5.69 -5.92 -2.81 -1.92

GFSWCAN_sfc_wetblb_174.txt.gz
Wetbulb
42.90 42.86 42.96 43.06 43.44 43.60 43.62 43.55 43.57 43.58 43.65 43.86 44.14 44.06 44.10 44.17 44.39 43.66 41.26 44.67 40.60 36.89 39.55 40.78 40.86 37.51 36.50 36.11 33.56 35.81 35.03 35.32 34.78 33.16 33.22 32.18 30.41 30.25 29.28 30.56 29.96 29.54 28.23 26.62 27.70 25.36 25.10 38.63 35.95 33.16 37.70 39.23 38.00 38.51
42.22 42.50 42.61 42.87 42.98 42.97 43.25 43.41 43.42 43.38 43.37 43.42 43.70 43.93 44.14 44.08 44.06 44.74 39.20 42.76 45.41 40.31 39.82 42.20 43.54 41.21 43.02 41.50 39.03 34.85 37.04 37.11 38.68 36.56 34.30 33.54 29.66 28.38 30.44 29.20 30.69 29.13 34.29 31.94 32.08 33.37 38.08 38.09 38.27 39.63 38.90 37.64 38.25 38.23
41.74 41.84 41.92 42.03 42.17 42.73 43.08 43.34 43.75 43.49 43.28 43.25 43.72 44.13 44.28 43.92 44.20 43.98 40.40 40.45 44.30 37.94 38.66 39.01 38.30 40.54 39.73 40.53 42.12 36.28 37.47 38.63 37.25 39.25 36.25 34.89 31.51 32.61 28.71 29.80 31.09 31.88 34.56 33.11 32.00 36.02 36.33 38.02 38.25 37.24 37.16 37.23 38.49 39.68
41.50 41.44 41.46 41.31 41.62 41.94 42.23 42.65 43.02 43.40 43.29 43.04 43.86 44.06 44.09 43.59 43.65 44.12 39.65 41.16 42.34 39.89 34.65 36.01 39.03 37.86 39.37 39.42 40.08 40.03 39.40 38.04 38.54 38.86 36.66 34.94 33.26 33.23 32.07 31.90 32.24 34.25 33.48 33.71 32.98 36.13 37.37 36.87 37.79 37.63 37.15 36.75 38.73 38.93
41.41 41.46 41.34 41.11 41.17 41.31 41.65 41.83 42.04 42.66 42.93 42.59 43.00 43.40 43.83 43.70 43.46 43.73 41.01 40.99 43.64 41.14 34.94 33.49 37.05 36.95 37.98 39.17 38.96 38.59 38.74 38.57 38.41 36.41 36.14 34.69 33.94 33.06 31.76 31.49 31.29 33.57 34.09 33.08 34.35 36.93 36.81 37.55 38.63 38.23 37.42 37.47 38.53 38.61
40.85 41.13 41.27 40.89 41.39 41.40 41.29 41.30 41.61 42.05 42.31 42.10 42.23 42.52 43.17 43.34 43.47 40.13 34.48 45.10 46.28 44.91 35.81 31.42 35.92 35.04 36.55 37.81 37.49 36.74 37.67 37.61 38.09 38.08 36.36 34.60 33.72 34.98 31.82 30.66 36.78 35.20 35.26 36.97 37.28 36.80 36.68 38.06 37.72 37.56 36.93 37.22 37.76 38.25
40.88 40.88 40.90 40.80 40.94 41.18 40.92 41.09 41.27 41.76 42.05 41.82 41.86 42.23 43.31 43.04 41.43 36.88 35.44 41.67 45.42 45.88 35.85 31.37 31.33 35.15 36.38 36.54 36.08 36.95 37.27 37.01 37.95 36.42 35.50 35.04 34.37 35.02 32.63 30.41 37.07 36.00 36.36 36.42 37.21 36.81 36.94 36.45 36.62 36.58 37.00 36.75 37.73 36.89
40.10 40.31 40.55 40.74 40.82 40.57 40.63 41.13 41.11 41.53 41.84 41.78 41.84 42.70 43.70 43.23 43.18 39.30 42.00 43.44 43.19 41.41 38.41 31.90 29.87 32.90 35.94 33.34 33.26 35.33 35.23 36.24 35.74 35.11 34.54 34.34 33.21 33.10 30.23 35.39 36.20 35.57 36.08 36.06 36.28 36.00 35.92 36.22 35.97 35.80 35.87 35.56 35.88 36.30
39.92 40.10 40.27 40.40 40.44 40.58 40.69 41.04 40.73 41.07 41.58 41.50 41.86 43.26 42.03 41.21 37.08 39.57 44.25 46.78 46.00 39.47 32.69 32.52 29.12 27.78 35.24 32.94 34.04 33.85 35.14 31.94 33.70 33.33 33.56 33.91 31.58 30.34 34.70 35.16 35.31 35.28 35.15 34.31 34.04 33.85 34.46 34.11 35.43 35.46 35.27 35.35 34.84 35.97
40.61 40.19 40.16 40.11 40.42 40.28 40.41 40.58 40.31 40.72 40.88 41.43 39.76 37.20 33.62 38.13 42.22 42.01 38.38 33.28 34.22 36.78 36.00 31.82 34.16 29.84 34.29 32.75 31.40 32.24 32.61 30.55 28.31 31.76 32.43 31.26 31.30 35.18 34.53 33.97 33.52 32.91 32.77 31.73 31.19 33.05 33.90 33.62 33.94 34.33 34.62 35.73 36.22 36.40
40.26 40.25 40.20 40.32 40.42 40.18 40.07 40.38 40.25 40.09 39.59 36.83 33.10 32.89 38.53 40.73 36.97 32.75 31.34 31.75 31.71 31.67 34.48 31.82 32.85 30.00 35.12 30.98 30.58 32.22 30.71 29.69 27.40 29.33 29.67 27.16 27.31 31.74 31.31 31.37 32.33 32.18 32.10 31.75 31.97 32.40 32.87 33.05 32.97 33.85 34.68 35.42 35.03 35.94
40.30 40.27 39.73 40.16 40.28 40.13 40.13 39.91 39.94 37.82 36.46 35.33 34.76 37.74 36.47 33.11 31.40 29.11 29.39 31.68 31.82 29.58 31.86 30.43 31.67 33.63 33.20 34.80 31.98 30.11 28.45 28.14 25.48 30.01 27.72 24.17 29.94 30.16 29.87 30.09 30.73 30.99 31.33 32.08 32.45 32.13 32.86 32.87 33.57 33.47 34.24 34.83 34.80 35.71
40.03 39.49 39.27 39.64 40.09 40.12 39.87 39.67 39.62 39.59 39.23 37.78 33.99 31.04 29.83 29.75 25.26 25.61 25.52 28.22 28.62 31.62 31.05 31.81 31.26 32.80 32.99 33.22 30.62 29.60 26.35 25.21 29.20 24.99 24.03 27.80 29.39 28.98 29.29 29.47 30.56 31.29 31.50 31.35 31.75 31.90 32.07 32.37 33.81 33.36 33.56 34.67 35.18 34.88
39.81 39.53 39.15 39.15 38.61 39.19 39.39 39.52 39.56 38.08 35.31 29.85 29.00 22.98 25.49 25.58 27.09 27.25 27.89 30.95 32.99 33.57 32.42 34.09 31.78 33.47 33.11 31.42 30.33 27.58 26.69 26.85 23.82 22.87 24.18 27.60 27.23 28.40 29.50 29.99 30.33 30.45 31.35 30.81 30.30 30.03 30.36 29.95 30.44 31.46 32.76 33.78 34.35 34.04
39.72 39.52 38.55 38.38 37.79 38.46 38.60 38.41 38.49 37.63 31.91 27.57 29.13 21.35 24.54 28.80 29.67 30.07 31.64 32.26 33.02 35.64 34.62 33.42 32.84 34.21 32.28 31.18 29.96 26.66 23.44 23.76 25.62 25.72 26.90 27.49 27.93 28.95 29.42 29.74 29.74 30.12 30.62 30.68 30.63 30.27 29.64 29.34 29.94 30.19 31.03 32.41 33.40 32.64
39.58 38.55 36.57 38.91 39.01 38.54 38.02 37.37 35.28 35.35 31.69 28.56 27.70 24.07 26.81 26.06 28.02 29.99 31.68 31.80 33.90 35.32 35.23 34.28 31.27 31.14 29.88 29.42 25.89 24.22 23.92 22.87 26.65 26.42 27.69 28.42 28.19 29.25 29.65 29.91 29.53 29.89 30.14 30.28 30.25 30.07 30.03 29.69 29.63 29.58 30.36 30.89 31.31 31.51
38.75 32.14 37.30 38.72 38.23 37.07 37.14 32.51 30.26 25.85 25.96 25.11 24.08 28.06 25.80 25.90 26.14 28.47 30.42 31.99 35.72 34.79 31.81 32.13 29.34 28.03 29.59 25.00 24.30 24.66 25.51 25.63 26.60 27.69 29.94 30.79 29.51 29.62 31.44 31.62 31.51 31.62 30.10 29.68 29.74 29.74 29.62 30.05 30.43 30.57 29.15 28.71 29.31 30.03
33.94 33.40 38.17 38.49 33.89 32.76 30.02 28.87 25.21 23.83 21.96 23.58 22.66 23.82 25.45 27.18 24.78 26.51 27.41 31.02 32.39 31.20 30.69 28.94 29.11 26.08 25.48 24.49 24.07 25.63 26.06 28.84 29.93 29.64 29.38 29.43 30.07 30.49 30.46 29.97 30.59 31.41 30.72 30.01 29.50 29.66 30.18 30.23 29.53 28.37 28.41 28.64 28.87 28.93
33.70 34.39 36.61 35.82 32.46 27.49 25.64 23.11 24.57 20.89 21.78 24.06 24.55 25.74 26.36 26.67 27.84 27.19 27.18 29.92 32.86 33.22 30.61 28.04 24.48 24.51 25.22 25.98 26.54 27.20 28.94 28.76 26.94 27.49 28.48 29.43 29.60 29.39 29.40 29.61 29.73 29.90 30.46 30.51 30.46 29.55 29.26 28.84 28.95 29.44 29.35 29.45 28.54 28.91
38.11 36.42 35.34 33.84 30.98 21.58 17.37 17.94 24.09 22.87 20.40 22.92 24.28 23.22 24.55 24.51 25.33 25.02 25.34 27.65 30.74 29.50 24.68 22.84 22.42 23.81 26.93 29.28 30.20 29.68 29.37 28.59 27.88 26.53 26.82 28.26 28.77 28.80 28.09 28.29 28.40 28.68 29.59 29.92 30.88 32.06 30.96 30.66 30.42 29.89 30.65 30.34 29.28 28.46
33.16 31.12 30.17 28.42 19.96 19.28 18.07 16.42 19.39 23.20 23.69 21.44 22.16 21.62 21.80 23.43 22.20 20.63 20.56 25.67 23.95 22.35 22.05 24.35 24.96 26.00 26.98 26.91 28.30 28.90 28.21 28.90 27.69 28.04 27.35 26.90 27.48 28.35 27.60 27.22 28.08 28.64 28.54 28.64 28.85 29.34 29.82 29.18 29.82 29.53 29.44 29.13 28.56 28.47
30.29 29.23 19.04 18.86 12.67 12.63 14.98 18.15 19.48 20.67 21.13 19.36 18.45 18.39 17.24 17.31 17.42 18.43 19.48 21.21 19.80 20.85 23.55 24.84 25.31 26.41 25.25 24.49 25.02 26.43 27.20 27.51 26.90 27.82 28.75 28.67 26.30 26.00 26.01 26.15 26.79 26.76 27.44 27.49 27.45 27.45 27.90 29.24 30.54 29.10 28.95 27.96 28.09 28.58
27.29 21.64 12.23 9.83 10.05 9.67 9.49 14.50 14.12 14.27 15.49 14.71 15.58 15.22 14.05 14.60 16.85 19.10 19.09 21.00 20.46 22.52 23.51 24.31 25.37 26.00 24.52 24.74 25.06 24.38 24.75 25.19 24.39 24.42 24.68 25.18 25.35 24.76 25.19 25.13 25.42 26.06 26.42 26.12 25.54 26.01 26.52 28.81 28.57 26.85 26.52 25.67 25.19 23.89
23.15 10.45 5.27 1.62 2.78 6.41 5.24 4.92 9.33 10.75 11.31 10.65 11.03 11.85 12.47 13.40 15.42 18.79 16.07 18.68 20.93 22.34 21.44 21.67 23.93 23.03 23.29 22.88 22.12 22.68 23.13 24.51 24.79 25.01 25.77 25.48 24.57 24.24 24.66 23.80 24.05 24.30 23.68 23.99 24.09 23.76 23.03 23.73 25.34 23.21 22.33 21.99 21.52 21.79
12.57 8.89 6.03 1.79 -2.78 4.11 4.99 2.46 4.58 8.78 5.47 5.70 8.41 10.18 10.43 9.93 12.05 11.62 13.89 17.86 19.69 19.26 19.14 21.03 22.40 22.10 21.29 21.57 21.16 21.87 23.31 24.47 23.97 23.76 25.23 25.55 25.45 24.41 24.39 25.02 23.73 22.37 21.88 24.03 23.21 22.29 20.87 21.81 22.71 22.95 21.88 21.81 20.82 20.27
4.98 11.35 6.96 7.44 7.97 4.74 6.86 2.07 0.74 4.11 4.54 5.48 5.97 6.67 7.22 10.45 11.53 10.70 13.39 15.70 17.11 17.64 17.30 18.87 20.84 22.07 22.24 22.50 21.38 22.02 22.57 24.14 25.06 24.34 23.34 23.89 23.57 24.63 23.65 23.25 22.40 22.40 20.82 21.10 22.12 21.73 20.83 20.38 19.93 18.96 17.92 18.95 22.12 18.42
3.47 6.28 12.62 18.75 13.44 10.51 9.45 9.18 8.99 6.60 5.12 5.08 6.55 6.06 7.78 7.18 7.05 12.57 16.28 17.28 17.13 16.56 16.06 17.48 19.83 21.56 21.23 20.27 21.36 21.29 21.77 24.15 23.61 22.07 21.04 20.47 20.98 21.54 23.94 21.92 19.38 20.64 19.45 20.56 21.43 21.74 20.30 18.81 17.75 17.02 15.63 14.68 13.33 13.60
6.79 7.85 3.90 7.33 8.01 6.82 0.43 0.77 1.11 2.03 5.08 7.33 8.20 4.45 7.37 4.92 10.46 13.60 15.03 16.17 13.22 11.03 12.44 16.33 18.74 18.93 18.42 18.73 18.17 19.32 18.75 19.41 19.43 20.07 20.47 19.20 17.20 15.86 16.50 18.88 24.44 23.79 19.98 19.46 18.84 18.61 18.30 17.53 16.52 15.68 14.71 13.35 11.74 10.36
7.47 11.92 11.54 3.29 2.09 4.77 4.98 5.11 7.70 13.12 14.53 10.56 7.83 8.59 7.71 11.78 11.98 11.85 15.01 14.41 11.93 11.87 12.43 15.25 14.61 15.00 15.26 16.69 16.51 16.82 18.11 18.66 17.50 14.79 15.54 15.36 15.76 15.63 13.26 13.99 15.70 16.57 18.97 22.80 23.39 16.91 12.69 13.64 13.03 11.83 10.54 11.62 9.67 8.94
4.63 8.10 5.13 -1.76 0.54 2.89 5.93 7.82 8.25 10.56 15.44 16.31 16.54 14.00 12.50 12.16 13.69 14.57 12.79 11.82 11.04 10.38 10.73 10.15 11.95 13.10 17.55 16.73 15.29 16.46 17.79 17.18 19.04 21.16 17.09 15.70 15.08 13.80 11.43 12.36 12.58 12.69 14.78 16.09 15.55 16.29 18.76 12.64 12.98 9.36 9.90 9.99 11.06 9.99
5.51 3.10 2.36 4.00 2.58 4.62 4.90 4.80 6.68 14.56 12.33 11.87 12.27 8.74 8.08 10.19 13.40 13.50 11.84 9.92 8.32 6.27 8.53 10.26 12.61 14.16 15.60 14.61 14.54 15.49 15.72 17.69 17.32 16.81 16.38 15.21 13.68 13.21 12.73 12.41 12.49 12.93 12.78 12.56 12.15 11.37 9.64 8.52 7.80 8.04 7.56 5.64 4.53 6.72
0.71 -6.41 -2.20 2.61 0.95 0.99 -0.92 0.01 1.09 1.79 5.01 7.13 5.74 8.00 8.32 7.21 4.42 7.98 12.05 6.70 7.04 7.70 13.63 11.15 12.13 13.53 17.06 18.49 18.40 19.89 20.83 17.23 17.32 16.45 15.22 15.27 14.55 13.91 13.49 12.88 12.56 12.02 11.54 10.03 9.30 8.44 6.61 7.15 7.62 6.48 6.71 4.40 3.34 3.23
-11.55 -11.55 -12.08 -7.73 -4.87 -3.99 -4.90 -3.50 -2.95 -2.10 0.48 -0.59 3.14 4.95 5.99 8.31 4.33 9.31 12.32 10.92 10.25 11.06 12.02 13.45 14.56 16.07 16.51 16.34 17.65 20.86 21.14 19.73 21.81 24.20 24.04 22.70 20.71 17.54 14.14 12.86 11.81 11.62 11.05 10.37 9.20 8.54 6.79 2.97 5.01 3.20 2.61 1.08 1.91 2.41

GFSWCAN_sfc_wetblb_177.txt.gz
Wetbulb
42.92 43.06 43.31 43.25 43.47 43.26 43.76 43.71 43.96 43.95 43.77 43.60 43.67 43.87 44.21 44.35 44.34 43.81 42.09 44.41 40.27 33.37 33.96 37.49 39.14 37.81 38.66 38.35 34.74 37.99 35.84 35.55 34.09 31.63 32.44 33.81 33.19 34.30 33.33 35.22 31.70 30.49 29.06 28.00 30.36 26.89 24.56 41.61 37.54 33.70 38.78 40.72 40.44 40.17
42.50 42.80 42.75 42.82 42.92 43.10 43.38 43.53 43.45 43.70 43.83 43.88 43.54 43.68 44.15 44.60 44.53 44.36 38.93 43.13 44.16 36.28 35.61 40.27 41.50 42.67 43.65 43.85 40.17 38.17 36.76 36.09 37.21 34.18 36.60 36.77 34.32 35.15 34.38 30.15 36.27 31.57 36.50 33.46 34.15 33.75 39.93 40.56 39.74 41.56 40.47 38.28 39.07 39.53
41.89 42.28 42.43 42.42 42.29 42.49 42.35 42.67 43.05 43.16 43.58 44.00 43.98 43.60 43.88 44.62 44.55 43.90 41.27 42.25 41.00 35.03 35.05 35.77 37.37 42.35 44.94 45.83 47.12 37.11 37.21 38.63 38.32 42.93 39.25 38.96 33.92 36.75 31.35 32.58 33.95 35.33 39.04 34.52 34.27 39.03 38.88 40.47 41.42 40.65 40.90 38.74 39.65 40.95
41.71 41.69 41.94 42.24 42.14 41.97 41.84 42.15 42.36 42.45 42.62 43.11 43.53 43.83 43.38 43.82 44.03 43.72 41.15 42.73 40.17 36.20 30.81 36.30 40.91 40.58 44.60 42.61 43.73 44.48 42.57 41.08 39.23 38.93 37.76 37.38 34.45 37.98 36.06 35.29 35.18 35.92 35.61 35.16 35.13 38.37 39.50 39.36 40.48 39.98 40.31 40.21 39.06 40.91
41.34 41.63 41.66 41.81 42.04 42.02 41.76 41.79 41.92 42.04 42.16 42.32 42.63 43.38 42.97 42.97 43.18 42.93 43.13 42.63 43.04 35.53 32.75 35.38 37.95 38.84 39.48 39.90 40.22 39.93 39.20 39.58 37.55 35.00 35.98 35.92 38.17 35.97 35.83 34.76 33.71 36.22 36.03 34.07 35.02 39.93 39.27 39.31 40.34 40.85 39.29 39.49 39.54 39.94
40.92 41.23 41.24 41.24 41.53 41.74 41.86 41.63 41.81 41.85 41.66 41.86 42.21 42.84 42.65 42.52 42.64 40.02 34.38 44.50 44.43 40.95 34.11 31.13 36.15 35.77 37.09 38.41 38.78 37.79 39.00 39.10 39.09 38.01 38.68 38.80 37.15 37.16 33.89 33.08 38.98 39.36 39.86 40.74 38.79 39.58 38.99 39.39 39.55 39.14 38.79 39.07 39.21 39.51
40.65 40.74 40.88 41.16 41.34 41.35 41.42 41.49 41.50 41.43 41.51 41.84 41.95 42.55 42.59 42.41 41.40 35.59 32.76 41.57 43.78 39.50 32.26 31.35 32.28 34.71 36.93 37.10 36.72 37.13 38.10 38.32 38.84 39.23 37.70 38.15 37.01 37.28 35.35 31.92 38.81 39.12 39.66 39.14 38.87 38.39 38.11 38.78 38.20 38.78 38.43 39.22 39.08 39.05
40.05 40.30 40.49 40.57 40.83 41.13 41.22 41.10 41.44 41.11 41.31 41.81 41.79 42.32 42.58 42.75 42.24 38.03 41.26 43.30 42.90 37.15 34.00 31.91 31.38 32.05 35.42 32.46 32.70 37.31 36.64 37.64 37.63 37.98 37.28 36.62 35.82 36.04 31.94 37.57 39.96 38.61 38.69 38.11 38.62 38.89 38.08 37.93 37.99 38.34 37.96 37.59 37.51 38.11
39.78 40.02 40.30 40.57 41.24 40.92 40.86 40.81 40.86 40.81 41.29 41.26 41.53 42.12 40.81 40.14 36.91 39.23 43.47 43.24 43.95 37.04 31.95 32.95 29.14 28.41 35.55 34.52 35.15 34.85 37.15 33.27 35.89 35.08 35.96 36.59 34.82 31.41 36.22 38.05 39.23 37.90 37.28 37.58 36.86 36.83 36.88 36.14 36.63 37.35 37.38 36.97 36.06 37.75
39.75 40.04 40.90 41.48 41.06 40.88 40.68 40.57 40.61 40.65 40.78 40.74 39.34 34.87 31.82 39.12 42.20 41.44 40.09 35.59 35.56 35.65 33.43 33.26 35.55 30.59 35.17 34.29 34.18 33.55 34.40 32.37 30.33 33.62 35.12 32.74 33.07 38.25 38.90 38.53 38.51 37.11 36.34 34.92 33.49 34.09 35.02 34.71 35.59 36.35 36.14 37.13 37.47 37.77
40.08 40.12 40.65 40.98 40.96 40.52 40.39 40.56 40.77 40.55 39.86 36.53 33.20 31.90 38.59 40.59 36.87 34.48 31.11 30.67 31.91 30.05 33.71 34.93 34.23 31.07 35.99 32.81 32.14 34.67 32.56 32.23 28.90 31.67 31.40 29.69 28.78 35.27 37.02 36.31 36.15 35.50 35.32 35.19 34.97 34.58 34.28 34.35 34.02 34.61 35.65 37.03 37.21 36.91
39.51 39.97 40.45 40.19 40.01 40.28 40.66 40.64 40.46 39.05 36.58 36.20 35.72 37.94 36.98 32.49 31.08 29.37 29.32 31.78 31.73 31.36 32.78 31.93 32.80 34.11 33.84 36.48 32.71 31.39 30.77 30.05 27.75 31.53 29.38 26.05 32.93 32.82 32.67 32.82 33.28 33.81 33.58 33.94 34.68 34.02 34.51 34.45 34.77 34.76 35.20 35.82 36.94 37.14
39.39 39.82 40.37 40.09 40.06 40.61 40.46 40.43 40.32 40.05 39.46 37.66 33.47 29.51 29.40 29.54 25.12 25.41 24.86 29.37 30.36 32.34 32.55 33.34 32.29 33.55 33.01 34.34 33.01 31.12 27.93 27.41 30.82 26.73 25.16 30.59 32.17 31.50 31.76 32.02 32.41 33.18 33.07 32.97 33.39 33.50 33.38 33.45 34.21 34.28 34.60 35.92 35.99 36.26
39.22 39.67 40.00 39.69 39.44 39.39 39.13 39.76 39.88 39.15 35.83 28.78 26.23 24.35 25.69 25.85 27.56 28.79 28.15 29.01 33.00 34.81 33.53 34.67 32.84 33.27 33.91 32.26 32.04 28.63 28.46 27.68 24.08 22.87 25.38 31.79 30.85 30.97 31.90 32.11 32.39 32.85 32.86 31.56 31.56 31.30 31.60 30.97 31.62 32.15 33.29 34.64 35.54 35.37
39.20 39.64 39.88 38.80 38.08 38.71 39.25 38.71 38.81 38.45 32.37 25.97 28.35 22.40 25.40 30.07 29.98 31.08 32.17 32.00 33.33 35.80 35.67 33.79 33.12 33.93 32.82 30.82 32.41 27.52 23.91 23.76 25.51 26.89 29.69 29.43 30.68 31.65 31.66 31.61 32.22 32.45 32.92 32.25 32.29 31.34 29.76 29.90 30.99 31.19 32.26 33.88 34.82 34.12
38.91 38.64 37.75 38.83 38.83 38.40 38.55 38.69 37.82 35.21 31.90 27.25 27.44 25.82 28.29 26.87 28.69 29.76 31.15 31.79 34.32 35.83 35.46 34.37 32.22 31.71 31.06 31.38 27.56 26.54 25.04 24.66 28.57 28.54 29.67 30.98 30.94 31.39 31.29 31.43 31.31 31.80 32.29 32.14 31.78 31.44 31.52 31.26 30.92 30.70 31.64 32.29 32.58 32.81
38.42 34.78 37.09 38.82 38.57 37.76 37.87 35.46 33.04 28.11 26.47 26.41 26.62 28.69 26.89 26.02 26.24 27.80 29.04 30.80 33.03 33.69 32.22 32.53 30.67 30.38 31.64 29.28 27.61 28.26 28.00 27.38 28.54 29.55 30.97 31.32 31.33 31.59 32.19 32.29 31.63 31.29 31.36 31.45 31.42 30.92 30.60 31.46 31.54 30.46 29.21 29.78 30.26 30.94
35.00 36.91 37.19 37.82 36.35 34.59 33.28 32.12 29.22 26.17 23.24 26.05 23.39 25.86 26.48 27.33 26.44 27.23 27.82 29.64 29.69 31.97 32.51 31.03 32.08 29.28 28.28 26.71 26.36 26.48 27.99 30.76 31.53 30.63 30.04 30.67 31.28 30.98 31.37 31.17 31.34 31.45 30.81 30.29 30.14 30.20 30.65 30.95 29.85 29.17 29.31 29.70 30.07 29.98
36.86 37.33 36.61 35.82 34.70 31.66 28.59 26.76 27.71 22.90 23.90 25.34 25.87 26.74 26.57 27.42 29.04 28.32 28.07 28.74 31.26 33.34 32.16 30.37 28.11 27.35 26.22 27.79 27.55 28.41 29.71 29.29 28.71 29.33 29.57 30.73 31.37 30.76 30.39 30.81 30.90 31.26 31.49 31.67 31.18 30.76 30.53 30.18 30.19 30.46 30.31 30.19 29.10 29.59
37.83 36.90 35.35 33.99 32.83 28.12 23.67 24.24 26.69 24.85 22.16 24.26 25.77 24.31 25.33 25.42 26.05 25.98 26.52 26.94 30.38 28.53 24.16 22.94 22.39 24.07 27.83 29.74 31.63 30.83 30.63 31.13 29.60 27.81 27.58 28.72 30.16 29.46 28.80 29.46 29.34 30.43 30.91 31.41 31.83 32.55 31.61 30.98 30.67 30.70 30.58 30.16 28.95 28.22
35.80 33.51 31.17 31.80 26.68 27.13 24.07 22.29 23.60 24.58 24.40 23.33 23.22 22.39 23.33 25.31 23.29 22.04 21.64 24.24 24.02 22.42 22.39 24.88 25.16 26.62 28.95 30.48 30.91 31.15 31.58 32.45 31.04 30.27 28.34 27.18 29.22 29.20 28.62 29.08 30.28 30.44 29.92 29.89 29.72 29.81 30.49 29.67 29.88 30.17 29.73 28.88 29.15 29.16
31.91 29.79 26.51 25.23 22.68 22.27 21.86 22.04 20.84 22.87 22.42 21.23 21.22 20.90 19.27 19.05 19.00 20.35 20.84 21.64 20.07 20.61 23.21 24.88 25.65 26.70 25.61 25.64 26.96 28.64 29.24 29.32 29.37 29.76 30.45 30.22 27.89 27.38 26.81 27.49 29.15 28.79 28.31 28.25 28.59 28.29 28.66 30.00 30.00 29.22 28.34 27.30 28.73 28.31
29.63 26.81 21.80 20.39 16.96 17.64 14.66 19.56 18.32 17.56 17.93 17.17 20.09 18.89 17.56 17.92 19.77 22.03 20.50 20.77 20.63 23.06 23.86 25.27 25.26 26.33 25.50 26.47 25.92 25.54 26.94 27.05 26.12 26.32 26.77 26.63 26.14 26.43 26.96 26.83 27.54 28.42 28.03 26.57 27.11 27.07 27.21 29.23 28.38 26.45 26.23 25.85 25.79 25.08
24.98 16.07 12.54 12.89 13.79 10.98 14.15 11.87 15.09 15.52 16.05 14.93 15.83 15.48 15.19 14.73 17.03 21.16 17.03 18.74 21.08 22.95 22.80 23.64 25.51 24.98 24.50 23.79 22.79 23.29 24.66 26.69 25.88 25.97 27.00 26.57 25.24 24.55 25.04 25.71 26.04 25.54 24.72 25.28 25.66 25.07 24.51 25.02 25.83 24.30 24.32 23.88 23.82 23.87
16.88 11.54 12.83 7.88 11.13 11.07 9.67 11.41 11.45 14.32 12.06 11.57 14.32 14.24 13.32 13.42 16.42 15.07 15.92 18.02 19.84 19.58 20.91 24.33 24.08 23.95 22.03 21.93 23.02 23.23 24.91 25.84 25.46 24.25 25.45 26.71 25.62 25.47 25.27 25.75 24.36 23.27 24.13 27.43 24.70 24.16 23.74 24.24 24.01 23.42 22.87 22.45 21.26 20.50
8.40 12.45 12.01 12.45 13.27 12.99 11.23 9.60 9.25 9.44 10.95 12.63 11.39 12.16 12.84 16.20 14.28 12.48 15.12 16.41 17.63 18.05 18.37 19.30 21.79 22.81 21.83 22.94 22.57 22.55 22.77 24.95 26.50 23.74 23.39 24.35 24.85 25.89 25.26 24.49 24.56 22.81 22.83 24.52 25.32 23.76 22.29 21.86 20.68 19.33 18.23 18.51 22.31 18.84
9.18 9.54 16.64 20.13 16.85 14.64 14.10 13.34 12.98 13.28 11.24 11.12 12.37 12.62 14.38 11.26 11.15 14.10 18.01 17.74 17.71 17.44 17.02 18.47 20.86 21.74 21.14 21.74 22.16 22.03 23.43 23.91 23.36 21.96 21.64 21.22 21.43 23.34 25.09 23.29 21.18 20.81 22.44 24.11 24.15 23.16 21.23 20.14 19.21 18.42 16.92 16.08 14.72 14.84
12.35 13.27 8.36 11.82 12.38 13.25 8.79 10.19 10.81 10.58 12.44 12.10 13.02 9.40 10.22 11.06 12.02 14.37 16.15 17.41 15.82 15.43 17.36 19.67 20.20 20.75 20.23 20.08 20.60 21.32 21.01 21.30 20.74 20.84 20.87 20.36 18.82 18.56 18.91 22.24 24.18 24.46 22.21 21.70 21.07 20.81 20.41 19.57 18.42 17.15 15.59 14.63 13.21 12.77
12.44 14.00 14.45 4.55 8.16 11.73 10.14 10.93 12.61 15.23 16.06 15.08 13.77 11.92 10.89 12.93 13.77 13.89 16.01 15.94 16.13 16.91 17.81 18.99 18.03 18.88 19.97 20.19 20.19 21.17 21.62 22.39 20.07 17.22 17.50 18.40 19.47 18.02 16.62 19.31 20.49 21.79 23.09 22.51 23.87 19.02 15.59 16.22 15.24 14.19 13.06 13.58 12.18 12.39
10.06 11.21 11.28 5.53 4.81 8.76 9.57 9.92 12.21 14.18 17.85 18.19 17.29 14.98 13.92 14.01 15.09 16.09 15.21 14.67 13.96 14.19 14.17 14.21 15.49 17.33 19.35 18.97 18.14 18.12 19.34 19.52 20.61 22.75 19.68 18.02 16.84 15.52 15.84 16.91 17.08 17.68 19.29 19.17 18.55 18.33 20.25 16.13 16.05 12.88 12.83 12.30 13.48 12.06
9.36 11.28 10.39 10.99 8.52 8.82 7.92 7.53 9.87 15.13 15.27 15.49 15.40 13.71 12.01 12.95 14.87 14.83 13.36 12.42 13.05 14.40 15.28 15.26 16.37 17.59 17.50 16.36 17.12 17.72 17.52 18.84 16.68 17.20 17.59 16.60 16.12 15.67 15.52 15.38 16.01 16.77 16.59 15.95 15.06 14.03 13.08 12.54 12.06 10.94 9.33 7.21 6.46 8.57
7.74 2.98 7.07 6.14 7.20 7.05 6.26 7.55 8.08 9.99 11.02 12.63 10.83 13.19 13.24 13.10 9.29 12.04 13.41 13.25 13.24 11.89 15.76 14.83 15.33 15.65 18.04 19.76 19.94 20.90 21.38 18.28 17.44 17.15 16.67 16.63 15.97 15.27 15.40 14.83 14.24 15.07 14.44 13.44 12.75 11.65 9.82 10.03 9.62 8.31 8.23 4.79 3.67 3.47
1.54 1.73 0.58 4.35 4.74 5.62 3.86 4.00 4.65 5.96 7.24 7.17 7.21 7.85 9.10 10.44 7.29 10.86 14.67 14.68 13.09 12.89 13.47 14.79 16.37 17.60 17.59 17.94 19.81 20.68 21.00 20.06 21.38 23.52 22.98 21.72 20.38 18.35 15.94 15.29 14.86 14.10 13.06 12.59 11.59 10.36 7.96 5.03 6.10 3.43 3.07 1.74 2.47 2.97

GFSWCAN_sfc_wetblb_180.txt.gz
Wetbulb
43.10 43.18 43.34 43.62 43.74 43.69 43.90 43.99 43.97 43.97 44.03 44.19 44.11 43.93 43.84 43.92 44.41 42.47 39.97 42.43 37.77 31.86 32.40 34.49 34.59 31.07 32.00 33.31 28.94 32.96 34.00 35.21 34.48 30.44 29.04 29.18 27.40 29.78 30.66 30.48 26.75 25.85 23.99 23.37 24.70 23.30 21.16 36.76 34.08 30.04 33.27 33.52 34.47 35.22
42.09 42.70 42.85 43.04 43.03 43.23 43.43 43.49 43.51 43.74 43.80 43.97 44.15 44.42 44.06 43.81 44.34 44.32 37.87 42.27 42.09 34.94 32.97 38.07 38.47 38.91 37.99 36.33 32.78 34.80 35.67 36.09 36.88 32.66 32.59 30.49 28.98 32.07 31.44 27.24 31.80 26.10 31.03 27.51 29.35 29.36 35.98 36.96 35.93 36.10 35.67 34.21 33.22 33.72
42.24 42.27 42.34 42.52 42.76 43.05 43.04 42.94 42.79 42.77 43.08 43.27 43.56 43.90 44.29 44.41 43.98 43.26 39.45 40.21 39.31 33.92 32.20 32.46 31.47 37.05 39.71 38.96 41.22 32.89 35.67 39.30 36.77 38.76 35.13 35.13 30.42 34.18 28.33 28.13 27.30 30.57 34.51 29.55 31.15 33.86 35.49 37.43 38.67 36.42 34.98 33.77 34.37 35.35
41.84 41.98 42.12 42.26 42.27 42.30 42.77 42.78 42.51 42.35 42.60 42.62 42.81 42.96 43.18 43.45 43.87 42.97 38.63 39.87 38.59 35.23 27.63 28.27 37.60 36.51 42.28 41.93 40.45 39.88 38.39 40.99 40.38 39.47 33.98 32.05 32.12 35.85 32.59 32.60 30.08 30.51 32.35 30.78 30.25 33.66 32.95 36.26 36.94 37.03 35.23 36.10 34.58 35.66
41.32 41.64 41.73 41.78 41.90 42.23 42.19 42.48 42.46 42.30 42.24 42.39 42.36 42.32 42.46 42.65 43.37 41.47 39.82 39.97 40.22 33.93 26.65 28.99 34.68 35.75 38.00 40.69 41.48 41.61 39.94 39.55 37.49 34.14 32.36 31.85 35.23 33.75 31.45 29.42 27.62 31.07 30.09 28.83 28.78 34.74 34.25 34.82 36.47 37.27 34.77 34.27 34.68 34.41
40.90 41.02 41.12 41.32 41.54 41.66 41.72 41.75 41.98 42.18 42.00 42.03 42.15 42.16 42.15 42.35 42.75 38.35 32.37 40.79 43.11 41.21 32.05 26.73 35.05 35.22 37.21 38.26 38.64 38.97 39.71 39.02 38.94 35.86 35.04 36.41 37.37 33.30 27.80 26.04 34.13 33.72 35.10 35.71 33.56 33.40 34.61 36.16 36.32 36.10 35.59 35.20 34.78 34.03
40.25 40.37 40.51 40.98 41.17 41.36 41.54 41.72 41.76 41.90 41.92 41.72 41.92 41.86 41.97 42.22 39.60 34.49 31.34 39.20 42.71 40.51 29.51 24.87 29.73 33.84 36.70 36.77 37.44 37.58 38.69 37.73 36.34 34.98 35.71 36.31 33.94 34.21 30.36 26.42 34.32 34.55 35.35 33.84 34.15 33.53 32.85 35.67 34.62 35.56 35.87 35.88 36.72 34.74
40.12 40.24 40.34 40.48 40.79 41.03 41.19 41.27 41.54 41.67 41.61 41.67 41.69 41.57 41.80 42.06 40.93 35.97 38.77 42.09 41.81 35.44 33.76 24.83 28.00 31.08 34.78 32.24 31.13 36.05 33.41 35.02 34.74 34.98 35.35 33.88 32.21 31.69 27.71 33.66 34.55 34.08 34.07 33.58 34.33 34.81 34.49 34.21 34.78 35.36 35.36 35.31 34.05 34.15
40.06 40.18 40.05 40.26 40.70 40.89 41.27 40.69 41.84 41.36 41.40 41.38 41.25 41.22 38.56 36.55 33.35 35.63 42.72 43.55 41.22 35.75 28.62 28.82 28.34 26.16 33.85 32.81 33.28 33.22 35.87 30.31 35.25 32.21 32.96 33.22 30.34 26.75 32.11 33.62 34.01 33.48 33.24 33.55 34.34 33.88 32.77 32.61 33.55 34.60 34.46 33.99 33.06 33.62
39.80 40.34 40.52 40.81 40.93 41.28 41.50 41.60 41.18 41.24 40.90 40.70 37.66 32.83 28.22 34.87 40.83 40.01 38.08 34.43 33.97 33.89 32.13 29.22 34.54 29.82 33.84 33.29 31.53 31.66 32.25 31.64 28.71 31.07 32.90 29.99 28.17 34.84 35.82 35.53 35.37 34.68 33.62 32.66 29.82 29.17 30.45 30.60 32.63 32.40 33.67 34.46 34.25 34.82
39.99 40.08 40.16 40.23 40.75 41.16 40.73 40.90 40.78 40.63 40.04 35.03 30.34 28.21 35.56 40.12 35.63 31.06 27.38 29.00 31.37 28.65 31.47 32.30 33.66 29.81 35.71 31.82 31.42 32.92 31.15 31.11 27.28 27.77 27.97 25.48 25.60 31.80 35.34 33.98 33.84 33.01 32.58 32.28 31.27 31.06 30.95 30.75 31.18 31.70 33.14 34.58 34.90 34.51
39.65 39.67 39.63 40.23 40.73 40.97 40.63 40.37 40.71 37.90 35.58 35.16 34.24 35.97 34.78 29.05 24.87 24.10 26.95 28.67 29.32 28.82 32.89 30.97 31.78 34.04 33.65 36.47 32.08 30.97 30.25 29.59 23.87 28.86 25.46 22.44 28.19 29.87 30.39 30.43 30.50 30.60 30.58 30.61 31.28 31.03 31.12 32.24 32.12 31.95 32.47 33.34 34.25 35.01
39.27 39.12 39.48 40.15 40.69 40.32 40.40 40.69 40.87 40.39 39.34 35.41 31.10 26.05 24.92 23.87 20.76 21.85 19.44 24.85 28.51 31.56 32.47 32.95 30.81 31.85 31.06 32.46 31.57 30.61 26.83 25.29 28.84 25.80 23.77 25.98 29.18 29.69 28.97 29.21 29.47 29.65 29.80 30.01 30.27 30.50 30.59 30.19 31.19 31.26 31.56 33.17 33.71 33.16
38.92 38.90 39.49 40.08 39.86 39.93 39.86 39.67 40.39 39.14 34.36 27.31 20.73 13.64 21.42 20.94 23.19 26.61 27.18 27.86 30.59 30.57 31.79 33.71 31.19 31.78 31.88 30.92 30.99 27.71 26.98 27.16 22.38 21.36 18.57 24.13 27.30 28.54 29.10 29.43 29.63 29.84 29.55 26.78 27.45 27.73 28.12 27.25 27.84 28.50 30.35 31.72 32.70 32.62
38.79 39.01 39.47 39.50 38.93 38.94 39.23 39.27 39.40 36.67 31.95 23.68 21.31 19.24 19.22 27.58 29.45 29.07 30.90 30.60 31.69 33.66 32.01 31.48 31.41 32.64 31.58 29.63 30.81 24.06 22.16 21.46 23.42 20.39 24.38 26.69 28.90 28.73 28.29 29.24 29.25 29.38 29.33 28.86 28.78 26.41 23.68 24.47 25.50 27.56 28.98 30.79 32.02 32.19
39.16 38.31 36.87 38.55 38.53 38.19 38.30 38.29 36.20 34.86 30.11 21.69 20.78 21.21 26.75 24.29 24.32 25.73 27.55 28.21 31.86 30.40 32.66 32.13 31.54 30.50 29.57 30.12 24.48 21.02 19.79 19.21 22.89 24.19 27.08 28.29 28.18 28.96 28.19 28.57 28.39 29.08 28.93 28.50 28.29 28.76 28.41 27.87 27.49 27.32 27.82 28.65 29.73 30.53
39.64 34.44 37.92 38.03 38.84 38.78 38.19 33.97 31.36 27.10 21.56 23.69 21.06 27.43 26.36 25.61 24.60 26.31 26.38 27.48 30.94 27.50 30.91 31.73 29.10 29.10 30.04 27.16 27.07 24.18 21.85 26.81 27.10 27.47 29.22 29.28 30.03 30.87 29.66 28.23 27.96 27.94 28.49 28.33 28.01 28.01 27.69 27.71 25.99 25.17 25.64 26.85 27.72 28.39
35.13 35.90 37.65 38.07 37.12 35.09 32.33 32.20 28.28 23.95 21.63 21.72 22.75 24.10 25.68 25.94 25.58 26.40 25.91 28.28 26.79 27.62 31.20 29.60 30.85 28.15 26.50 25.77 26.28 25.76 27.84 29.04 29.04 28.99 29.56 29.92 30.82 30.83 30.37 27.93 28.30 27.92 27.47 25.49 24.01 23.06 23.41 23.80 25.59 26.20 25.40 26.58 26.15 27.15
36.36 36.32 37.07 37.15 34.58 30.00 23.52 23.81 25.89 21.43 21.37 23.53 25.42 26.23 26.25 26.21 28.29 26.53 26.98 27.84 29.08 30.05 30.29 29.50 27.43 24.46 25.11 27.30 26.70 28.09 28.49 27.91 26.84 28.05 29.49 30.38 30.56 30.24 29.83 29.95 28.73 29.60 30.20 28.60 28.82 28.24 27.79 27.69 27.74 27.92 27.76 27.89 27.65 28.21
38.17 37.64 35.02 35.44 33.37 24.18 15.05 19.58 26.67 22.33 19.37 23.52 24.37 21.52 23.53 24.70 25.15 25.21 25.51 25.27 28.47 27.58 23.19 21.65 21.58 23.45 25.43 29.56 30.50 29.59 29.06 28.71 27.32 25.15 25.69 26.93 27.40 26.76 27.71 28.80 29.73 30.68 31.09 30.87 30.48 31.71 29.72 28.86 29.13 29.26 29.09 29.10 28.06 27.68
35.62 32.20 31.85 31.40 23.94 22.75 19.51 17.89 19.66 23.24 22.47 22.10 21.65 21.29 21.44 23.92 22.15 21.12 20.81 24.43 22.31 19.38 21.13 23.32 24.59 26.27 28.91 30.05 31.33 31.42 30.17 29.96 28.27 27.78 26.64 25.80 27.40 27.74 27.59 28.28 28.90 29.30 28.82 28.66 28.27 29.09 29.30 27.78 28.19 28.15 27.94 26.90 26.39 26.61
31.04 31.71 23.32 24.34 15.54 14.48 13.60 18.23 16.64 21.38 20.37 21.66 21.18 20.53 18.38 18.24 18.66 19.75 21.21 19.63 18.38 19.60 21.60 23.16 24.39 25.60 24.38 24.35 25.83 27.88 28.90 28.92 28.72 29.26 30.11 29.16 26.43 26.01 25.89 27.14 27.32 26.39 26.47 26.96 27.40 27.06 27.08 27.94 27.16 26.11 24.81 24.73 27.06 26.14
29.85 25.51 16.61 13.90 8.41 7.72 7.13 15.14 10.40 14.39 17.04 17.50 20.32 18.75 17.50 17.35 19.75 22.48 18.65 19.46 19.86 22.71 23.99 24.83 24.71 25.71 24.55 25.39 25.77 25.84 27.03 26.60 25.48 25.63 25.34 25.00 25.25 25.75 25.74 25.26 25.46 25.70 24.53 24.32 24.73 24.85 24.60 27.24 26.32 23.39 23.89 23.96 24.33 23.69
25.09 10.63 5.64 4.23 4.27 2.87 6.43 4.22 10.60 14.24 16.40 16.05 16.57 15.49 14.73 14.51 17.55 19.51 15.51 17.47 20.31 22.36 23.27 24.06 25.47 24.37 24.31 23.42 22.18 22.83 24.40 25.70 24.90 25.10 25.97 24.95 23.79 24.08 24.71 22.98 22.68 22.38 23.25 23.88 23.26 22.33 22.09 23.74 25.31 23.30 22.62 21.40 20.65 20.12
11.34 6.27 5.19 0.25 1.92 2.10 -0.06 1.29 3.55 10.48 11.60 13.34 14.50 14.21 13.66 14.40 16.15 15.06 14.71 16.15 18.35 18.24 19.23 22.93 23.28 23.49 21.97 22.18 22.79 22.95 24.34 24.97 24.03 22.58 23.81 25.51 25.11 25.07 23.92 21.82 20.62 19.80 20.77 19.25 19.97 21.08 20.11 20.76 20.39 19.67 18.70 17.52 15.68 14.24
1.69 5.47 4.09 5.94 3.19 4.68 4.65 1.47 3.06 4.09 8.11 10.90 11.16 13.21 12.87 16.44 13.09 11.05 13.77 15.22 16.93 16.91 16.55 17.39 20.30 21.92 20.76 22.21 21.37 21.35 21.99 24.36 25.25 21.85 21.24 22.54 23.33 25.55 24.17 18.30 17.14 18.47 19.53 18.72 19.87 18.41 17.23 16.54 15.23 13.15 12.34 14.13 20.08 11.14
-0.50 0.67 14.61 19.49 15.56 12.82 9.61 10.92 11.71 9.07 3.57 5.45 9.66 11.20 12.79 9.87 10.06 13.22 17.53 16.56 16.33 17.16 17.20 18.62 20.53 20.83 20.92 20.93 21.32 21.95 22.47 21.45 20.77 19.92 20.23 19.93 20.57 20.76 20.61 17.87 15.52 17.91 18.52 19.11 18.70 17.65 16.27 14.90 13.48 11.88 10.34 9.23 8.79 8.46
6.54 8.37 2.64 5.61 5.62 7.52 1.12 4.31 4.87 6.16 9.14 11.73 10.51 5.40 5.03 8.90 10.53 13.96 15.72 17.17 16.47 16.20 17.80 19.97 20.06 19.67 19.19 19.57 20.63 20.64 19.63 19.82 19.53 19.74 20.04 19.01 17.35 16.29 16.58 18.78 21.40 24.43 18.52 17.64 16.79 16.04 15.18 13.26 11.84 10.38 9.28 8.06 5.80 7.30
6.57 11.75 10.82 -0.37 0.65 3.24 4.09 6.14 9.38 13.01 15.04 12.54 9.39 8.74 9.06 12.18 13.14 13.14 15.71 15.76 16.88 16.99 16.86 17.74 17.75 18.87 19.43 19.49 19.26 18.83 19.10 19.73 18.26 16.77 15.56 14.11 12.10 13.74 12.38 12.56 14.31 15.61 16.90 21.29 24.10 17.04 11.72 11.59 9.84 8.65 5.81 5.73 4.25 3.08
4.20 8.93 4.81 -1.97 -1.31 0.94 3.90 6.82 6.38 10.91 15.73 16.14 15.54 13.30 13.33 13.49 14.39 15.66 14.12 13.12 11.48 11.30 13.17 14.35 15.45 14.48 14.93 15.15 14.57 14.89 16.14 14.96 15.91 18.43 14.20 12.30 9.96 7.89 5.38 8.62 11.53 12.00 13.37 13.91 12.40 12.67 20.38 11.16 11.05 4.46 5.63 4.86 4.09 3.05
7.51 5.26 2.55 3.69 1.73 4.68 4.90 5.90 6.88 14.65 11.31 10.53 10.14 6.54 8.55 10.11 13.71 13.77 11.73 10.70 9.94 10.70 10.95 12.24 13.74 14.27 13.19 12.23 10.54 11.17 12.64 15.17 9.77 10.71 13.57 12.50 9.78 8.52 8.53 8.32 8.36 10.25 10.09 9.44 8.89 8.37 6.79 6.11 3.71 1.54 1.22 0.13 1.19 1.79
2.75 -5.14 -1.46 -0.44 -0.80 3.04 4.63 4.28 4.17 4.92 6.08 4.69 4.00 6.05 7.36 6.54 2.45 7.15 11.45 8.87 7.55 8.40 14.34 12.11 11.54 12.66 15.75 15.84 13.84 14.36 20.30 15.28 13.24 11.57 10.89 12.65 11.39 9.88 10.32 9.34 8.69 9.47 9.11 7.99 6.73 5.44 4.22 2.19 1.06 0.53 -0.43 -3.90 -3.99 -3.58
-5.62 -5.59 -6.20 -3.96 -4.63 -4.48 -3.97 -3.77 -3.28 -1.92 -0.44 -1.33 2.60 3.84 3.03 4.90 1.18 5.92 8.29 8.12 8.53 8.67 9.55 12.25 13.59 15.13 15.20 14.15 14.93 17.32 18.44 15.08 17.52 23.16 22.58 21.38 20.42 16.96 11.26 8.59 9.43 9.37 8.79 7.47 5.25 3.35 2.24 -1.29 -2.36 -3.88 -4.53 -4.95 -5.57 -5.02

GFSWCAN_sfc_wetblb_183.txt.gz
Wetbulb
42.27 42.59 43.38 43.45 43.52 43.63 43.79 43.99 43.99 44.08 43.95 44.14 44.09 44.13 44.23 43.87 43.71 40.23 37.19 39.47 36.43 31.38 30.38 32.04 32.08 28.75 28.65 28.48 23.54 27.44 27.24 27.07 31.01 27.95 27.23 26.13 24.83 26.10 25.81 28.15 24.74 25.73 23.49 23.63 26.98 24.56 20.49 34.63 31.22 28.76 33.20 33.27 32.83 32.14
42.91 42.25 42.21 42.71 43.00 43.24 43.36 43.30 43.57 43.51 43.53 43.47 43.79 43.95 44.11 44.27 44.49 42.91 34.76 39.72 40.60 35.17 32.13 34.48 35.16 36.15 36.22 35.19 30.85 28.98 27.85 29.09 35.39 32.61 29.00 28.46 25.83 26.11 26.51 22.65 29.85 25.11 29.16 25.12 26.94 27.36 33.90 34.79 33.46 34.68 35.23 34.06 32.29 31.80
42.45 42.51 42.54 42.68 42.55 42.71 42.89 43.00 43.31 43.20 43.02 42.82 42.84 43.34 43.56 43.64 43.92 42.82 36.25 36.74 36.54 30.68 30.43 30.91 30.72 35.30 37.57 36.64 38.04 30.05 31.03 31.78 31.50 35.91 33.98 33.31 30.18 30.25 24.22 25.93 28.47 29.49 33.63 29.16 28.50 32.36 34.41 36.38 36.21 35.75 36.31 34.32 33.45 33.81
41.81 41.98 42.17 42.28 42.33 42.36 42.54 42.68 42.59 42.99 43.07 42.77 42.73 42.76 42.71 42.81 42.88 42.38 36.58 36.38 34.80 31.92 26.11 25.36 34.82 31.25 35.49 36.10 36.38 36.52 34.65 35.79 34.76 36.09 33.06 31.77 29.85 35.20 29.76 30.55 29.66 32.12 31.32 31.06 28.40 31.10 32.56 34.12 35.28 35.70 36.22 35.95 34.07 34.07
41.36 41.36 41.50 41.58 41.96 41.94 41.92 42.28 42.52 42.41 42.67 42.90 42.64 42.38 42.39 42.35 42.27 39.50 37.13 36.73 37.61 31.44 23.11 24.84 30.83 33.60 35.16 34.73 33.81 35.34 35.65 34.80 32.57 30.27 32.08 30.38 32.86 32.17 32.05 32.23 30.43 33.63 30.54 30.01 29.62 32.69 33.37 32.77 33.51 36.18 35.85 34.97 33.54 33.21
40.91 40.99 40.94 41.15 41.20 41.28 41.62 41.81 42.04 42.21 42.04 42.34 42.52 42.32 42.27 42.23 42.12 35.77 30.38 36.47 39.11 37.26 30.84 25.44 29.87 29.79 32.73 33.92 33.48 33.38 33.34 35.98 34.78 32.07 32.65 35.79 36.93 34.18 29.81 28.31 32.19 35.08 34.19 33.93 32.68 32.52 33.23 33.11 33.88 34.64 35.62 35.44 34.62 33.37
40.76 40.81 40.60 40.63 40.64 40.89 41.32 41.52 41.63 41.80 41.98 42.03 42.22 42.35 42.17 42.02 36.62 32.72 28.45 34.34 41.87 40.12 30.38 21.71 20.25 31.62 36.32 36.28 36.01 35.87 37.54 38.19 35.31 34.17 33.62 35.35 35.24 36.42 32.28 28.24 35.50 34.51 33.62 32.64 33.24 33.70 31.23 33.82 33.45 34.72 35.40 35.81 36.94 34.55
40.48 40.55 40.35 40.28 40.65 40.52 40.79 41.10 41.31 41.54 41.57 41.89 41.99 41.88 41.70 41.70 39.41 33.54 37.01 41.22 41.29 34.70 32.49 19.96 19.33 27.31 35.56 32.00 30.93 35.30 33.43 33.49 34.46 34.42 35.53 35.12 33.84 33.39 29.08 32.94 37.35 37.03 33.00 32.06 32.49 32.66 33.46 33.73 33.91 34.01 35.02 34.99 34.03 34.02
40.23 40.22 40.27 40.34 40.59 40.49 41.02 41.24 41.44 41.59 41.80 41.64 41.68 41.27 37.07 33.85 29.87 31.32 40.56 41.44 39.55 33.79 22.68 24.50 21.11 19.37 34.62 32.94 33.64 32.72 33.36 29.01 33.94 31.22 32.76 33.95 31.13 28.21 31.15 33.56 35.02 34.25 32.88 32.93 32.60 32.77 32.65 32.19 32.50 32.65 33.50 33.70 32.83 33.16
39.09 39.54 40.30 40.53 40.66 40.77 40.82 41.35 41.44 41.37 41.48 41.20 36.84 31.83 24.76 30.77 40.02 38.29 34.19 28.47 33.02 32.42 30.57 26.54 29.55 26.46 32.58 32.88 31.30 31.14 31.76 31.26 27.00 29.84 33.24 30.69 27.85 33.72 34.50 35.34 35.48 34.47 33.53 32.52 30.39 28.93 29.94 29.75 31.70 31.56 31.78 33.76 33.90 33.83
39.21 39.67 40.00 40.25 40.10 40.45 40.86 41.39 41.16 40.38 39.73 34.36 30.84 25.24 30.74 38.99 33.25 27.61 24.74 26.41 26.21 25.08 29.50 28.79 27.99 25.53 34.83 29.74 30.49 32.40 30.14 31.38 27.08 27.74 28.33 25.19 25.47 30.73 34.66 34.99 34.96 33.49 32.39 31.59 31.86 31.93 31.80 31.44 31.01 30.76 31.32 32.49 33.89 34.34
39.05 39.53 39.91 39.61 39.75 40.30 40.98 41.18 40.88 36.19 34.22 33.62 32.64 34.56 31.59 24.47 15.79 15.77 14.49 24.04 26.16 23.43 30.66 29.16 29.17 30.01 31.72 36.12 31.95 31.08 29.17 29.73 24.65 28.79 28.08 23.89 27.38 31.37 31.78 30.81 29.76 30.05 30.69 30.71 30.95 30.99 31.12 31.58 31.31 31.17 31.03 31.46 32.45 33.69
39.09 39.60 39.53 39.34 39.81 40.44 40.73 40.88 40.76 40.36 39.23 35.42 29.35 18.74 24.09 13.16 16.87 9.67 5.19 17.90 20.33 30.95 31.82 32.07 30.71 32.49 31.05 32.47 31.34 29.68 25.34 25.77 27.76 26.29 24.31 25.67 29.77 28.94 27.82 28.22 28.13 28.39 29.78 30.35 30.19 30.37 30.38 29.57 30.36 30.47 30.47 31.27 31.70 32.39
39.41 39.50 39.20 39.29 39.76 40.39 40.13 40.12 39.95 39.32 34.32 26.67 16.81 12.55 15.48 10.35 13.73 15.74 20.91 25.27 28.90 30.24 30.18 30.91 31.24 30.57 31.80 29.31 30.53 26.76 26.43 27.18 22.08 21.10 19.67 25.03 27.73 28.32 28.02 29.26 28.90 27.76 27.68 26.14 27.51 28.03 28.36 26.46 27.87 28.01 29.46 30.48 31.00 31.17
39.39 39.48 39.26 38.72 39.55 39.02 38.97 39.18 40.10 36.87 31.85 20.49 17.73 12.57 8.57 21.40 26.97 28.75 29.04 27.70 30.24 32.12 31.18 29.70 30.86 31.17 30.60 29.20 29.66 24.78 22.22 19.04 20.22 20.26 23.70 26.00 28.23 28.72 27.16 27.57 28.08 27.85 27.58 27.29 26.72 24.46 21.34 22.66 24.30 26.91 28.09 29.80 30.94 31.12
39.35 38.90 35.91 39.14 39.32 38.72 38.09 37.56 34.65 33.35 28.08 17.79 11.05 14.59 20.14 21.81 22.11 24.38 25.18 25.59 29.32 28.42 28.25 29.89 30.01 29.27 28.96 29.32 22.48 18.40 17.58 16.69 21.56 23.07 25.62 27.49 26.64 26.26 26.15 26.81 27.03 27.45 26.86 26.57 26.72 27.06 26.95 26.33 26.05 25.86 26.81 27.81 28.76 29.16
38.21 33.38 37.93 38.43 38.77 38.83 37.66 33.26 29.77 21.82 18.18 13.53 12.58 19.19 23.00 21.28 22.45 22.38 24.13 25.93 29.03 25.25 23.83 30.66 28.20 28.16 30.15 25.73 25.40 22.74 18.89 26.05 26.77 27.46 27.57 26.80 28.78 26.62 26.10 26.67 27.07 27.28 26.89 26.73 26.25 25.65 24.86 24.91 24.24 24.39 25.24 25.64 26.66 26.91
35.06 35.55 38.89 38.68 35.74 35.41 31.39 30.59 24.65 16.16 10.56 13.44 13.05 17.13 21.33 19.73 21.00 23.47 25.21 26.26 26.17 25.18 24.53 26.63 28.18 26.74 23.10 23.82 25.75 25.53 27.34 27.99 29.16 29.25 29.69 30.08 29.38 27.74 27.79 26.97 27.16 26.76 25.45 23.37 22.91 22.00 22.28 22.95 24.33 24.62 24.26 25.11 25.28 25.61
34.11 34.13 37.89 38.57 33.33 26.72 22.28 24.16 24.98 13.94 14.90 15.02 21.70 23.40 25.62 23.05 23.99 25.76 25.64 26.47 27.40 28.25 26.53 25.98 23.62 21.17 23.45 27.03 26.56 27.86 27.43 27.91 27.26 28.07 28.84 29.88 29.97 29.47 28.98 29.18 28.27 27.64 26.44 24.75 26.72 26.51 26.50 26.17 25.72 25.96 25.86 26.52 25.93 25.95
38.98 37.29 36.19 37.44 33.76 21.83 13.98 12.62 20.45 15.01 13.57 20.27 20.55 17.85 19.06 20.70 23.94 23.48 24.42 25.17 25.56 26.51 22.04 18.78 20.01 22.90 23.71 27.78 30.24 29.27 28.76 29.25 27.92 25.90 25.91 27.28 28.70 29.33 29.44 29.98 29.79 30.35 29.75 29.10 28.72 29.63 27.50 27.23 28.00 28.74 28.71 28.30 26.86 25.94
34.54 33.12 33.29 30.79 21.83 19.23 12.87 9.96 14.20 16.39 20.35 20.28 20.60 19.67 18.49 22.64 20.51 20.48 19.74 23.40 21.30 17.14 17.69 20.94 22.64 24.62 27.21 28.43 30.16 30.39 30.00 29.91 28.49 27.33 25.87 25.50 27.96 28.83 28.75 29.27 29.63 29.64 28.82 28.50 27.72 27.87 27.75 26.34 26.97 27.39 26.71 25.73 26.08 26.76
31.25 32.63 17.13 21.23 10.47 6.60 8.04 15.10 14.86 14.87 15.42 17.05 19.13 19.61 15.84 15.96 16.56 17.96 21.31 17.99 17.10 19.03 20.94 21.91 23.31 24.45 24.29 24.60 26.57 28.48 28.71 28.64 28.71 29.05 29.39 28.79 26.41 26.54 26.82 27.45 27.30 26.35 26.54 26.93 27.27 26.30 25.55 25.71 25.83 25.71 25.71 25.88 26.48 25.04
28.07 21.61 8.95 4.80 6.82 3.35 6.60 8.91 8.09 5.15 11.78 14.91 17.99 16.00 15.10 14.61 18.04 22.40 16.71 18.51 19.32 22.06 22.90 24.64 24.66 25.00 24.36 25.63 26.31 26.24 27.19 26.57 25.31 25.22 25.20 25.02 25.30 25.57 25.54 25.29 26.54 25.72 24.63 23.85 24.45 24.67 24.79 27.21 26.53 24.46 24.31 23.21 22.07 20.62
23.69 7.42 3.83 2.15 -1.75 1.82 -0.99 -0.16 1.91 8.92 12.30 15.37 14.77 12.41 12.54 13.73 17.61 17.29 14.18 16.67 19.50 21.00 20.22 22.75 24.44 24.02 24.21 23.71 22.59 23.12 24.97 25.82 24.69 24.61 25.27 24.72 23.61 22.65 23.12 22.85 23.17 23.47 23.73 23.24 22.94 22.57 23.09 23.67 24.19 21.31 20.22 18.65 17.95 17.71
12.02 6.17 2.74 -2.27 -6.34 0.03 -5.10 -3.07 -1.18 9.83 12.60 14.33 14.21 13.72 13.78 13.64 11.65 12.69 13.21 14.97 17.55 17.23 17.49 19.67 22.67 22.74 21.50 21.70 22.40 22.82 24.48 24.99 23.09 21.98 22.87 25.34 24.30 22.78 21.66 21.40 20.83 20.64 21.61 22.45 20.98 20.11 19.09 19.15 18.36 17.19 16.06 15.31 13.68 12.37
1.56 2.60 2.60 4.34 -0.82 2.16 0.52 -0.34 1.56 5.69 9.13 12.08 12.75 14.50 12.90 15.14 9.88 9.40 12.67 14.11 15.87 16.01 15.56 16.00 18.55 20.99 19.93 21.42 20.51 20.59 21.12 23.61 23.89 20.85 20.33 22.17 22.87 23.24 19.19 20.32 20.80 20.26 20.13 20.70 19.92 16.81 15.04 14.40 13.33 12.12 11.67 14.94 19.53 9.71
-0.43 -0.02 12.21 18.56 14.99 11.70 7.16 8.88 10.69 7.93 2.67 4.17 10.35 11.61 11.41 8.93 8.22 12.51 16.74 15.66 15.26 16.68 17.04 18.69 20.08 20.13 19.80 20.46 21.58 21.62 21.02 20.86 20.38 19.38 19.68 19.55 19.42 20.14 21.38 20.60 18.98 19.06 18.85 17.32 16.67 16.46 14.33 12.95 11.90 10.84 9.20 8.13 6.66 6.14
1.65 4.94 1.77 2.92 2.97 3.20 -1.28 -0.73 1.48 4.89 8.16 11.99 10.68 5.21 4.23 7.67 9.47 12.90 15.02 16.21 16.31 16.75 17.77 19.69 19.92 19.74 19.35 19.97 21.02 20.67 20.06 20.16 19.86 20.02 20.88 20.31 19.41 18.19 18.55 21.62 21.98 23.26 18.08 16.65 15.87 15.15 14.08 12.54 10.95 8.97 8.00 6.85 3.32 3.16
2.99 8.59 7.92 -1.38 -3.07 -1.50 0.49 1.99 5.52 11.12 14.28 11.63 7.48 7.24 7.66 11.25 12.82 12.46 14.98 15.45 16.59 17.20 16.19 17.13 17.81 19.44 19.48 19.43 19.22 18.55 18.63 19.66 18.11 16.72 16.38 15.80 16.75 16.55 14.93 16.98 17.09 16.71 18.88 19.43 22.20 15.03 9.71 10.87 9.21 7.93 4.88 5.35 1.39 -0.07
1.83 6.43 1.83 -6.65 -3.63 -1.93 2.30 5.58 4.68 8.02 13.63 14.69 14.43 13.27 12.57 12.59 13.66 15.15 13.69 13.05 12.54 12.76 13.77 14.97 16.12 15.82 15.26 16.52 16.10 17.09 17.57 16.32 17.28 18.79 16.48 15.49 14.18 11.92 8.98 13.61 14.01 11.46 12.13 14.75 14.19 15.51 19.64 9.42 9.02 2.35 5.53 4.64 3.78 3.06
5.55 2.09 -0.60 -0.91 -2.03 -0.80 0.84 5.24 5.98 13.28 10.19 7.38 6.21 6.06 6.59 8.49 13.00 13.31 11.75 11.34 11.27 12.21 13.14 12.96 13.98 14.41 15.10 15.11 14.57 15.56 17.14 16.29 13.65 15.22 14.88 13.00 11.28 10.46 9.36 8.43 7.18 8.86 9.18 9.66 9.13 8.10 6.13 3.80 2.28 1.68 1.84 0.58 1.30 -0.31
-0.26 -7.21 -3.24 -2.27 -0.76 0.51 -0.46 -3.03 -3.30 -1.71 2.81 2.98 3.69 6.01 6.28 5.21 3.64 7.72 11.30 7.05 6.95 7.30 12.96 11.35 10.59 11.99 14.98 15.56 15.77 17.44 19.71 14.04 12.80 12.92 11.86 12.33 10.69 8.57 9.63 9.37 8.07 8.73 8.86 7.32 5.71 4.59 3.65 2.17 0.93 -0.40 -1.89 -5.90 -6.54 -6.37
-10.19 -10.60 -10.16 -7.41 -5.03 -5.10 -4.20 -4.68 -4.16 -5.96 -4.46 -5.56 -0.99 1.95 -0.14 2.67 0.35 4.82 7.78 7.53 8.33 7.96 9.01 10.96 13.09 14.54 14.72 13.45 13.78 16.07 16.85 13.25 16.71 21.93 21.64 20.57 19.55 15.97 11.05 9.07 9.31 9.61 8.34 6.35 3.70 2.74 1.11 -3.08 -4.09 -6.03 -6.65 -7.57 -7.79 -7.77

GFSWCAN_sfc_wetblb_186.txt.gz
Wetbulb
42.89 42.58 42.05 42.85 43.56 43.62 43.71 43.89 43.93 43.76 43.87 43.90 44.01 44.20 44.31 44.30 44.38 38.69 35.69 38.06 33.99 30.44 29.61 30.93 30.95 28.03 28.33 27.86 23.89 26.76 25.56 24.67 25.69 21.57 22.68 22.65 21.36 23.48 23.02 25.40 23.12 23.32 21.51 22.79 25.12 24.40 21.90 32.65 30.29 28.15 31.26 32.46 32.85 32.15
42.29 42.81 42.80 42.10 42.48 43.03 43.14 43.27 43.22 43.39 43.61 43.57 43.48 43.59 43.68 43.87 43.90 42.19 32.80 38.16 39.29 35.56 33.40 33.86 34.56 34.97 33.48 32.37 28.92 27.91 27.70 26.83 28.62 29.69 27.59 26.90 24.89 24.12 23.59 20.26 26.82 22.32 27.61 24.09 26.61 26.78 32.59 32.20 32.85 34.32 33.57 33.27 33.47 32.11
42.01 42.20 42.64 42.59 42.84 42.82 42.81 42.81 42.77 43.00 43.31 43.34 43.29 43.05 43.04 43.40 43.41 41.40 35.17 36.56 37.51 30.68 28.07 28.38 29.14 33.86 36.51 35.91 36.84 28.15 29.06 30.75 28.50 30.67 25.58 27.20 24.00 29.23 22.85 24.07 23.81 26.95 30.33 29.29 28.57 32.16 33.91 35.94 36.90 34.64 35.21 34.55 35.07 34.30
41.61 41.71 42.15 42.21 42.28 42.34 42.51 42.56 42.71 42.73 42.64 42.83 43.37 43.38 42.96 42.79 42.64 41.67 36.94 36.30 37.44 33.93 25.66 24.36 32.50 29.10 34.48 35.60 35.05 34.99 32.94 32.45 31.45 30.61 29.06 27.09 23.14 31.88 29.50 29.04 27.06 28.38 29.27 27.60 28.87 32.65 32.94 35.35 33.52 35.54 35.03 35.98 35.33 34.93
41.22 41.45 41.46 41.54 41.62 41.57 41.82 41.97 42.18 42.27 42.52 42.74 42.65 42.89 42.84 42.50 42.38 38.60 35.39 36.00 37.05 32.34 22.73 24.45 28.93 31.57 32.76 32.12 32.05 33.34 32.38 30.90 30.12 28.87 27.83 25.51 29.18 29.56 29.80 29.99 27.46 30.78 29.05 27.67 28.22 34.07 32.53 35.28 34.51 33.51 33.89 34.68 35.62 34.23
40.94 41.07 41.13 41.06 40.99 41.06 41.11 41.21 41.71 41.89 42.05 42.11 42.38 42.38 42.79 42.56 41.95 34.93 28.52 33.72 36.50 35.61 28.98 22.67 28.48 27.13 30.99 30.38 29.90 30.06 31.80 32.02 32.48 30.23 29.63 31.01 32.96 32.96 28.46 25.33 31.71 34.18 35.84 36.52 33.58 36.69 36.99 34.76 34.62 33.07 33.96 34.42 35.30 34.40
40.68 40.85 40.88 40.93 41.00 40.69 40.93 40.92 41.20 41.61 41.80 41.82 41.98 42.15 42.16 42.36 37.44 31.53 27.01 32.51 41.00 39.32 29.81 23.82 21.61 25.26 34.06 34.60 31.30 30.24 31.08 30.75 30.74 29.82 28.69 30.00 31.53 33.06 31.51 26.89 32.70 34.93 36.28 36.92 35.65 34.78 31.93 32.99 32.94 34.13 34.61 35.39 37.59 35.12
40.33 40.32 40.49 40.64 40.36 40.42 40.56 40.72 40.94 41.25 41.41 41.63 41.76 41.76 42.00 42.10 39.72 33.74 36.99 40.47 40.44 31.40 30.50 20.07 17.25 20.64 31.09 25.02 29.19 36.19 33.63 33.06 32.31 31.08 33.47 30.71 32.23 33.63 28.56 32.07 34.73 36.49 37.51 36.63 32.64 35.11 33.18 31.87 32.52 33.42 33.70 34.31 34.16 34.22
39.96 39.86 40.18 40.26 40.31 40.59 40.70 40.52 41.05 41.18 41.61 42.04 41.96 41.76 37.25 33.97 29.57 30.77 39.73 40.80 36.91 29.56 17.25 20.85 14.34 14.33 30.46 29.48 32.89 32.69 32.61 28.34 33.14 30.03 32.10 33.73 30.88 27.57 31.17 32.47 33.31 35.69 36.32 36.66 32.84 31.46 31.66 31.72 32.34 33.05 32.72 33.25 32.80 33.56
38.91 39.07 39.31 39.89 40.44 40.65 40.71 40.61 40.76 41.36 41.52 40.90 36.35 33.11 26.24 29.91 37.88 37.23 31.65 25.66 28.42 31.48 28.81 21.13 23.60 19.54 28.08 28.42 28.92 30.71 32.00 29.58 26.98 30.01 33.84 30.61 29.00 33.79 34.95 34.71 36.06 36.21 36.88 33.85 30.31 28.94 30.14 30.55 31.61 31.52 31.88 33.05 33.46 33.76
38.51 38.87 39.18 39.88 40.22 40.29 40.08 40.40 40.90 40.96 39.37 32.67 29.26 27.04 29.96 37.44 30.70 21.96 12.89 16.67 24.77 22.94 27.47 26.04 25.39 22.80 29.62 23.78 24.44 30.34 28.38 30.54 26.23 27.08 29.02 27.58 26.75 31.96 36.30 36.16 37.55 35.51 34.52 33.61 32.15 31.71 32.54 31.70 31.35 31.33 31.36 32.17 33.16 33.38
38.47 38.81 39.02 39.85 40.14 39.78 39.97 40.44 40.85 36.21 32.89 33.04 30.96 32.72 31.37 27.08 17.51 16.40 11.91 15.02 22.12 21.54 25.79 25.33 26.37 27.38 27.34 32.20 28.05 30.11 27.57 28.80 24.40 31.13 28.46 22.87 27.58 31.86 34.00 35.79 35.87 32.69 31.24 30.93 30.51 30.88 30.63 31.19 31.22 30.93 31.03 30.91 31.44 32.51
38.71 39.01 39.31 39.71 39.69 39.59 39.81 40.29 40.79 40.28 38.51 35.87 29.96 18.42 18.25 16.33 15.41 12.94 -0.64 8.04 17.80 25.99 30.79 30.08 28.20 31.08 31.00 31.48 29.25 29.59 26.27 26.16 27.69 22.89 21.10 24.05 28.52 26.96 26.57 27.39 27.31 28.55 29.69 29.89 29.75 30.34 30.73 30.18 30.56 29.75 30.03 30.49 30.32 31.69
38.66 39.14 39.55 39.73 39.76 39.41 39.89 40.39 40.32 39.21 34.86 27.42 21.41 14.52 16.12 1.85 11.52 10.50 12.36 21.29 25.84 28.34 27.91 28.04 29.32 30.39 31.49 28.32 30.41 26.45 26.43 26.25 16.33 15.35 17.95 20.39 24.02 25.79 26.64 27.40 27.41 26.68 27.80 26.69 27.86 28.59 28.63 27.31 28.18 28.18 29.35 29.81 30.21 30.03
38.69 39.01 39.30 39.25 39.76 39.49 39.50 39.46 39.01 36.24 31.90 24.15 18.14 9.42 7.69 14.25 16.60 26.07 26.79 25.38 28.79 29.43 28.07 24.64 25.71 30.34 30.17 28.27 29.59 25.39 21.76 15.67 19.21 19.74 22.95 23.58 25.97 27.03 26.95 27.38 26.55 26.02 26.11 25.52 25.06 24.04 20.81 22.47 24.13 26.61 27.57 29.22 30.33 30.52
38.82 38.90 36.47 39.30 39.11 39.38 38.78 38.26 35.09 33.18 27.93 23.92 19.48 15.79 15.38 11.73 16.93 19.01 23.29 23.40 28.24 28.53 27.31 25.95 23.63 27.38 27.44 28.58 24.02 21.61 16.60 16.34 21.57 23.75 26.42 27.67 26.92 26.50 27.21 27.24 26.38 26.27 25.81 25.92 26.19 26.42 26.09 26.06 25.89 25.35 26.20 27.21 27.86 28.19
37.99 33.09 37.69 38.87 38.99 38.84 38.62 32.81 28.62 19.10 17.98 12.93 15.52 15.96 14.41 13.67 15.93 19.64 21.63 23.62 29.04 25.48 21.27 25.43 23.72 24.36 30.05 20.46 21.76 22.52 20.54 24.92 26.02 26.99 27.32 27.69 26.39 25.50 25.54 26.94 26.80 26.50 25.61 25.33 24.47 24.74 24.31 24.50 23.76 24.90 24.38 24.58 25.90 25.91
34.70 36.30 38.39 38.91 37.33 36.61 32.95 31.60 23.65 15.03 8.72 9.45 11.27 11.98 16.66 16.88 17.62 19.49 22.20 25.37 25.59 23.87 23.93 22.94 24.36 22.97 24.40 22.13 24.39 25.74 26.91 28.05 29.06 29.30 29.38 28.72 26.77 26.04 26.81 25.65 25.62 24.97 23.87 22.05 21.74 20.64 21.52 22.88 24.16 24.12 23.76 24.19 24.12 23.96
36.20 34.47 37.85 39.04 33.40 26.20 20.81 24.82 26.68 13.06 13.08 12.23 15.36 15.82 18.86 21.31 21.54 21.16 23.99 25.42 26.93 27.41 25.55 23.96 21.74 19.32 20.63 25.60 24.34 27.49 27.32 27.41 26.90 27.55 28.31 29.36 28.46 27.81 27.06 26.73 25.94 24.95 24.12 22.74 25.60 25.30 25.37 25.27 24.99 25.08 24.69 25.11 24.19 24.21
39.11 37.96 37.78 38.00 32.73 18.12 13.41 13.17 23.42 13.18 14.16 14.86 19.36 14.94 19.14 19.28 19.39 20.44 21.67 23.91 24.11 24.96 21.14 17.60 19.35 21.86 22.35 23.41 27.69 28.71 28.49 29.09 27.89 25.92 26.09 27.80 29.69 29.53 29.19 28.89 28.34 27.76 27.34 27.00 27.50 28.66 26.47 26.30 27.21 27.39 26.79 26.23 24.71 24.04
34.31 34.03 34.37 29.09 22.50 18.93 11.98 5.38 8.94 14.87 17.62 19.66 22.13 19.77 15.99 18.51 17.82 18.17 19.25 23.05 18.83 13.98 13.32 19.49 20.98 23.06 25.88 27.23 30.19 30.27 29.32 29.09 27.32 27.25 26.35 25.96 28.46 29.12 28.95 29.43 29.61 29.23 27.66 26.61 25.92 26.62 26.64 25.63 25.69 26.02 25.51 25.28 25.76 26.03
32.38 31.55 24.51 22.69 14.50 7.83 7.48 13.44 13.46 14.24 10.83 11.06 16.18 16.50 12.88 11.36 12.96 17.64 18.95 15.58 16.31 18.30 20.33 20.23 22.52 23.17 23.91 24.13 25.95 28.00 28.73 28.45 27.89 28.23 29.05 28.86 26.58 26.72 26.66 27.75 27.80 26.61 26.70 26.89 26.55 25.31 25.06 25.89 26.45 26.07 25.23 24.77 25.25 23.47
28.26 20.07 7.41 5.99 7.88 3.71 5.95 6.91 6.98 1.97 6.34 11.19 13.45 12.41 11.39 11.70 14.53 20.97 14.28 17.65 18.82 21.36 21.15 23.11 24.70 25.03 24.29 25.70 26.23 26.00 26.92 26.30 24.97 25.16 25.35 25.13 25.11 25.65 25.58 25.10 26.91 26.02 24.04 23.43 25.29 25.30 25.25 27.22 25.75 22.75 22.36 21.11 20.30 19.04
22.17 7.13 3.99 2.46 -2.14 1.42 -2.56 -1.62 -1.51 2.25 4.62 10.92 11.03 10.04 10.82 11.59 16.40 12.76 12.75 15.80 18.79 20.32 19.07 19.54 23.46 23.26 24.10 23.64 22.30 23.06 24.83 25.93 24.87 24.74 25.59 24.58 23.11 22.14 22.85 22.55 22.83 22.95 23.43 23.77 23.65 23.21 22.94 22.45 22.76 19.84 18.37 17.08 16.67 16.37
11.97 5.34 2.49 -2.88 -7.27 -0.64 -5.24 -4.15 -5.36 2.62 6.67 12.72 12.28 10.58 11.47 13.54 10.76 10.83 11.78 13.75 16.55 16.51 16.54 18.23 21.69 21.43 20.72 21.27 21.93 22.46 24.27 25.04 23.27 21.68 22.24 24.67 23.25 22.98 22.03 21.53 20.95 20.93 22.28 22.14 20.11 19.27 18.19 18.08 17.42 16.52 15.97 15.47 13.95 12.83
1.30 1.85 2.19 3.88 -3.30 1.66 -0.75 -1.69 -3.16 4.21 9.72 12.18 13.08 15.07 14.34 11.75 5.68 5.36 10.53 12.64 14.41 15.80 14.97 15.19 16.70 20.27 19.44 20.58 19.68 19.78 20.36 23.73 23.90 20.89 19.99 21.56 22.67 22.59 21.43 20.78 19.94 19.39 19.57 20.72 19.64 17.08 16.04 16.07 15.43 14.74 14.87 17.58 19.97 11.44
-0.39 0.19 7.45 17.52 14.24 10.95 6.78 8.77 10.98 8.34 3.44 5.87 11.04 11.76 12.98 5.64 3.63 10.29 15.59 14.93 14.50 16.68 17.11 17.94 19.08 19.76 19.76 20.24 20.90 20.78 20.79 20.71 20.66 19.46 19.70 19.70 20.07 21.17 22.50 21.82 19.33 18.64 18.33 17.80 17.97 17.16 15.10 13.69 12.57 11.35 9.19 7.63 5.85 5.75
0.59 2.97 1.47 1.59 1.81 1.80 -1.16 -1.33 2.07 4.23 7.48 10.83 10.79 5.79 5.01 7.19 7.38 11.46 14.06 15.68 15.82 16.59 18.00 20.00 20.12 20.17 20.11 20.38 21.17 20.93 20.28 20.82 20.91 21.66 21.78 20.92 19.66 18.56 20.91 21.65 21.35 22.39 17.80 16.87 15.93 14.80 14.20 12.22 10.49 9.09 8.24 6.62 3.09 3.23
2.83 7.92 7.54 -2.59 -5.10 -3.79 -2.68 0.43 4.77 11.22 13.67 10.87 6.66 6.86 6.89 10.82 12.01 11.77 14.18 14.79 15.85 16.90 16.35 17.14 18.28 20.23 20.29 20.06 19.68 19.58 20.11 20.98 19.44 17.92 17.12 16.79 17.46 16.98 16.10 18.15 18.72 18.77 18.99 19.05 21.55 15.18 10.75 10.83 9.34 7.70 4.63 4.88 1.19 -1.04
1.30 5.71 0.22 -9.01 -4.50 -2.33 0.58 4.14 4.61 7.48 12.78 13.55 13.67 13.10 12.07 12.36 13.67 14.91 13.50 13.02 12.87 13.69 15.19 15.95 16.50 16.83 16.54 17.56 17.59 18.55 17.91 17.11 20.11 19.97 17.45 16.45 15.60 14.01 13.93 15.74 15.59 13.95 16.42 18.77 18.14 17.98 20.49 8.60 9.33 1.23 4.00 3.27 2.41 0.87
4.73 1.33 -2.27 -2.42 -2.58 -0.77 -0.04 4.02 5.15 12.31 8.97 5.32 6.45 7.71 8.58 10.03 12.83 13.36 11.93 11.17 11.53 13.63 13.21 12.15 13.39 14.39 14.68 15.05 15.61 17.66 17.38 16.15 16.69 18.03 17.59 15.68 14.42 13.25 11.97 10.42 9.89 10.67 10.21 9.62 7.99 7.68 7.02 2.67 2.07 2.22 1.80 0.01 1.04 -0.57
-1.03 -8.05 -4.02 -2.32 -1.77 0.60 0.05 -0.63 -3.22 -1.70 1.07 2.85 2.06 4.09 6.30 5.99 2.89 6.14 10.32 7.67 7.48 7.69 12.72 11.34 11.34 12.33 14.95 15.28 16.12 17.31 19.53 15.26 15.47 16.11 15.29 14.16 12.39 10.95 10.59 8.98 8.84 9.45 8.39 5.98 4.99 4.61 4.20 3.56 2.00 1.05 -0.57 -5.28 -7.53 -7.78
-11.60 -11.88 -11.53 -8.37 -5.60 -4.23 -3.61 -4.94 -4.32 -5.23 -3.92 -4.72 -0.92 0.46 -1.20 2.64 1.89 5.19 6.80 5.74 6.85 8.51 8.81 10.25 12.19 13.86 14.63 14.21 14.20 15.49 16.59 14.82 18.32 22.25 21.58 20.04 18.39 14.75 9.41 7.07 7.34 8.33 8.15 6.22 3.78 3.54 2.47 -0.06 -1.53 -5.43 -5.97 -7.02 -7.92 -7.16

GFSWCAN_sfc_wetblb_189.txt.gz
Wetbulb
42.35 42.34 41.98 41.78 42.72 43.22 43.43 43.38 43.53 43.51 43.43 43.76 43.66 43.56 43.82 43.82 43.86 38.24 36.65 36.96 34.69 30.70 28.30 29.81 29.99 26.77 27.22 26.48 21.35 24.12 22.99 22.93 24.37 19.78 22.88 22.45 20.42 21.43 20.53 22.94 21.40 21.27 19.93 21.06 23.54 21.64 20.01 32.47 29.11 27.81 30.82 30.69 31.80 31.35
41.99 42.35 42.35 42.82 42.23 42.44 42.82 42.93 43.03 43.05 43.12 43.37 43.57 43.49 43.34 43.33 43.51 39.82 32.27 37.34 37.97 34.40 30.43 33.04 33.25 34.04 32.29 31.07 27.17 26.11 23.90 24.53 27.24 28.21 24.26 24.68 24.02 21.66 20.33 16.54 24.60 20.36 25.46 21.30 24.98 24.55 31.01 30.75 30.88 33.54 32.42 33.81 34.24 31.99
41.66 41.97 41.89 42.47 42.82 42.76 42.56 42.69 42.65 42.65 42.85 43.08 43.25 43.35 43.33 43.00 43.24 40.56 33.62 34.92 37.67 34.30 29.92 28.08 29.25 32.82 34.73 34.52 34.38 25.61 26.43 29.26 27.35 29.51 24.14 24.09 18.35 22.13 17.08 23.85 25.15 25.56 27.92 25.14 25.14 29.25 31.85 34.97 37.13 34.63 35.54 34.94 36.48 34.04
41.20 41.41 41.64 41.94 42.26 42.30 42.25 42.24 42.24 42.41 42.53 42.63 42.84 43.04 43.46 43.30 43.11 41.19 34.47 35.26 34.39 32.33 25.65 24.44 30.97 28.24 33.60 33.90 33.49 34.04 31.89 30.71 29.78 28.71 23.43 21.72 19.28 25.82 19.75 23.58 26.67 29.06 29.67 26.19 25.92 29.02 30.80 33.29 35.02 36.15 36.97 37.44 33.31 34.07
40.99 41.16 41.36 41.52 41.55 41.57 41.58 41.42 41.57 41.99 42.27 42.30 42.33 42.80 42.87 42.67 42.77 38.73 34.88 34.97 35.73 29.73 22.20 23.18 28.44 31.48 32.25 31.81 31.41 32.45 31.73 30.06 28.85 26.86 26.20 23.81 25.30 25.61 25.46 25.04 23.10 28.06 28.14 26.45 26.18 32.07 30.92 33.09 33.45 33.13 33.28 33.06 33.71 33.49
40.84 41.11 41.10 41.25 41.05 40.81 40.81 40.91 40.92 41.17 41.67 41.80 41.86 42.19 42.47 42.34 41.40 35.49 29.05 32.18 35.81 34.42 28.59 16.90 26.99 27.33 28.40 28.30 28.33 28.99 30.22 29.62 29.31 27.91 26.34 28.02 30.29 28.47 24.01 21.84 28.80 30.97 32.28 32.68 30.62 34.75 34.29 35.01 34.38 34.16 35.32 34.88 34.05 33.89
40.57 40.76 40.81 40.92 40.88 40.89 40.86 40.78 40.91 41.02 41.15 41.42 41.73 41.93 42.06 42.14 36.10 32.48 27.40 31.10 38.89 38.12 28.76 16.57 19.67 26.20 28.37 28.40 30.43 27.81 27.82 27.62 28.91 28.19 26.55 26.37 29.42 30.36 26.22 21.35 28.15 31.07 33.75 34.12 35.22 34.92 32.73 34.52 33.71 35.50 34.31 34.64 36.27 34.38
40.40 40.48 40.41 40.53 40.57 40.40 40.30 40.37 40.75 40.98 41.17 41.26 41.55 41.64 41.75 41.71 39.25 35.35 37.02 40.62 39.90 33.36 31.14 21.34 17.48 19.40 27.91 20.25 20.45 29.50 29.40 28.16 29.22 27.90 28.89 26.48 28.20 28.38 23.02 27.78 30.93 32.82 34.06 33.96 33.34 34.17 35.37 34.71 33.07 32.79 32.45 32.95 32.67 33.27
39.94 39.96 39.77 40.23 40.20 40.22 40.52 40.69 40.77 40.77 40.99 41.25 41.38 41.51 38.26 34.39 32.13 30.74 39.71 40.34 36.13 29.22 17.04 18.96 12.76 9.67 27.19 24.53 27.95 31.54 32.74 27.24 31.99 26.18 27.00 29.02 26.39 23.12 26.07 28.17 30.43 33.50 33.92 34.34 36.39 36.70 34.16 32.75 32.87 31.35 31.75 31.66 32.24 32.96
38.87 39.40 39.43 39.25 39.47 40.32 40.53 40.58 40.41 40.53 40.72 40.48 35.25 30.80 27.94 30.69 37.81 36.81 30.76 23.24 29.23 27.01 28.61 20.57 20.56 16.11 24.12 23.62 22.64 24.81 27.18 26.06 21.80 27.41 32.10 27.58 26.22 30.84 32.25 34.12 35.20 35.09 35.72 36.19 31.91 29.34 29.06 30.38 31.28 30.57 30.95 32.12 33.61 33.71
38.04 38.32 38.68 39.08 39.47 39.93 40.18 39.92 40.06 40.12 39.09 32.39 30.17 27.18 29.98 36.43 28.98 20.27 10.73 20.29 12.59 16.57 23.84 24.20 23.58 20.17 25.41 19.24 19.40 24.92 22.66 26.23 21.78 25.86 27.14 26.87 25.72 30.72 35.01 34.80 36.02 35.43 34.40 34.98 36.09 36.51 34.74 33.18 30.51 30.94 30.69 31.88 33.20 33.33
38.24 38.43 38.60 38.91 39.20 39.84 39.97 39.70 39.90 35.52 34.19 32.08 30.72 31.58 30.19 25.42 19.44 13.08 10.47 11.97 18.02 18.03 25.66 25.85 26.48 27.31 26.78 28.95 24.93 26.81 24.16 25.44 19.31 30.87 27.66 23.52 28.54 28.59 27.98 31.11 35.16 35.74 33.44 33.00 32.49 31.99 31.74 31.09 31.04 30.90 30.86 31.10 32.18 32.97
38.32 38.51 38.77 39.06 39.31 39.58 39.75 39.48 39.63 39.83 38.64 35.73 30.88 22.59 17.87 15.54 9.97 6.88 -3.19 3.88 9.95 22.82 25.95 26.12 22.62 27.96 29.42 29.49 26.88 26.74 23.61 22.72 27.82 25.95 21.22 24.59 27.45 26.51 26.13 27.17 28.02 29.47 30.39 30.15 29.71 30.31 30.57 30.07 30.48 29.95 29.94 30.42 31.01 31.79
38.44 38.49 38.75 39.21 39.63 39.87 39.86 39.45 39.73 38.55 35.33 27.92 21.91 15.50 13.11 0.41 12.15 9.82 10.47 15.16 21.43 22.41 24.52 25.26 24.16 25.21 30.21 26.37 26.36 24.96 25.44 26.74 22.01 19.02 19.40 20.86 23.19 24.94 26.00 27.06 27.57 26.84 28.33 28.49 28.70 29.40 29.51 28.86 28.77 28.93 29.50 29.67 29.77 29.64
38.70 38.89 38.92 38.36 39.39 39.70 39.73 39.10 39.15 36.66 31.44 24.32 20.34 11.57 8.07 12.78 7.75 14.01 18.12 24.74 26.00 26.13 24.03 22.83 23.25 24.02 25.81 27.74 26.81 26.59 21.59 16.81 19.86 20.09 21.22 22.26 25.06 24.88 25.52 26.55 26.06 25.89 25.78 25.57 25.84 24.98 23.14 24.81 25.70 26.66 27.45 28.43 29.40 29.82
38.87 38.48 35.20 38.99 39.09 39.23 38.68 38.30 35.97 34.54 29.11 22.71 17.94 10.69 12.90 14.73 11.82 12.40 16.68 20.88 24.40 24.74 27.09 25.66 21.56 20.68 25.44 26.80 25.22 22.36 18.45 17.68 21.94 23.59 25.91 27.36 27.00 26.00 25.30 26.57 25.51 25.33 25.27 25.70 25.95 26.03 26.10 26.33 26.07 24.93 25.37 26.17 26.98 27.78
38.26 31.03 37.30 38.67 39.09 39.34 38.85 33.79 31.28 24.29 21.79 15.69 16.60 15.54 13.53 10.94 11.07 12.34 15.61 18.97 25.64 23.88 19.72 22.76 19.62 22.51 25.15 25.48 21.23 23.94 19.98 24.48 26.51 27.21 27.40 27.66 27.80 26.48 26.12 26.27 26.07 25.84 24.50 24.41 24.49 24.59 24.41 24.42 23.79 24.24 23.41 23.00 24.77 25.24
31.74 35.17 38.82 38.71 38.08 36.90 33.02 31.44 26.77 18.40 11.90 7.11 10.14 11.18 15.37 14.63 13.66 13.22 15.33 19.06 24.36 22.05 22.55 20.28 23.63 17.04 21.13 19.62 21.47 23.44 24.02 27.91 28.48 28.35 28.49 28.04 27.10 26.63 27.26 25.27 24.65 23.92 22.69 21.73 21.59 20.97 21.60 23.08 23.48 23.00 22.86 23.43 24.14 24.50
37.08 37.09 37.75 39.37 34.55 27.24 21.95 24.57 26.03 13.22 11.28 9.45 13.43 13.44 15.28 18.63 19.20 17.42 19.51 23.71 25.62 26.33 24.85 21.47 19.46 19.01 20.07 22.98 22.18 22.09 23.36 27.42 26.36 26.92 28.01 28.68 28.24 26.74 26.46 25.87 24.32 23.54 23.36 22.69 24.87 24.64 24.50 24.33 23.91 24.12 24.07 24.87 23.83 24.27
39.04 38.46 38.44 37.73 32.02 16.84 11.07 11.48 21.55 16.09 8.13 14.12 17.49 14.85 18.16 17.75 17.46 17.83 19.66 21.23 21.16 23.58 20.65 18.24 18.04 20.68 20.44 21.80 24.08 23.98 27.52 29.18 27.92 25.96 26.22 28.03 29.39 28.59 27.97 27.33 26.48 26.32 25.94 25.89 26.32 27.61 25.56 25.14 25.83 25.67 25.25 24.74 23.43 23.10
33.34 34.34 33.99 30.64 21.07 19.74 15.28 10.80 17.00 13.29 15.83 16.88 18.81 19.45 17.73 18.31 16.71 15.19 15.07 19.55 16.05 15.91 15.57 18.38 19.31 21.26 24.52 25.35 26.63 28.26 28.90 28.80 27.12 27.16 26.32 25.97 28.42 28.86 28.68 28.69 28.18 27.36 26.33 25.92 25.15 25.17 24.85 23.40 23.99 24.85 24.82 24.72 25.17 25.44
31.21 32.76 26.07 24.65 19.07 14.06 10.53 14.03 10.28 11.54 11.15 11.23 15.37 19.10 12.35 10.36 11.19 13.42 16.02 10.83 12.22 15.47 18.02 18.78 19.45 21.98 23.02 23.62 24.81 26.39 27.71 27.91 27.69 27.94 28.62 28.82 26.28 26.14 26.37 27.65 26.85 25.72 25.91 25.85 25.52 24.88 25.18 25.85 25.57 25.00 23.99 23.45 23.92 22.13
29.45 23.82 13.10 6.08 11.05 5.04 5.60 5.40 5.94 0.73 5.65 5.02 10.65 11.14 10.33 10.19 12.66 16.85 10.95 13.81 15.87 19.87 20.39 20.22 21.07 24.54 24.32 24.83 25.73 25.71 26.28 25.96 24.80 25.09 25.11 24.85 24.93 25.57 25.10 24.87 26.58 25.18 24.02 24.71 26.52 25.87 24.94 26.12 24.50 21.60 21.33 19.96 19.29 18.34
22.59 14.50 4.87 1.50 -2.33 1.65 -3.07 -2.67 -3.03 -0.93 -2.34 4.64 7.74 7.98 9.69 10.16 13.57 8.90 10.09 13.58 17.87 20.06 18.17 17.65 21.36 22.35 23.40 22.99 21.78 22.18 23.93 25.86 24.46 23.93 25.25 24.78 22.66 21.72 22.81 22.74 23.24 23.40 23.67 23.36 22.54 21.66 21.53 21.11 21.48 18.84 18.27 17.31 17.07 16.69
13.39 5.43 2.53 -0.92 -7.52 -1.03 -4.98 -4.91 -7.09 -1.99 -0.58 6.54 7.01 8.41 10.21 11.78 8.79 8.05 10.33 11.50 15.10 16.21 15.90 16.88 18.21 20.80 19.39 20.76 21.59 22.17 23.50 24.48 23.01 21.12 21.68 24.97 23.80 22.94 21.87 21.31 20.29 20.33 22.33 20.95 18.84 18.05 17.63 17.87 17.44 16.35 15.55 15.43 14.31 13.11
5.34 1.18 1.94 -1.00 -4.42 1.63 -1.39 -1.66 -5.01 -2.37 5.07 6.85 8.99 11.04 11.67 9.89 5.67 4.55 10.31 11.58 13.32 15.63 14.47 14.76 15.25 17.84 19.60 20.04 19.18 19.04 19.52 22.07 24.76 21.00 19.61 21.38 22.78 22.76 21.84 21.14 20.08 18.69 19.59 20.01 19.06 17.34 16.95 17.19 17.02 17.18 17.38 18.43 19.84 11.43
-0.09 -0.50 5.94 16.58 13.07 9.23 5.91 8.28 9.36 6.18 2.35 3.93 7.79 8.38 8.79 3.96 3.58 9.63 14.06 14.43 13.58 16.21 16.65 17.36 18.58 18.78 18.93 19.55 20.77 20.69 20.78 20.74 20.44 19.30 19.95 19.94 20.65 21.61 22.44 20.93 17.58 17.56 18.83 19.00 19.25 18.37 16.09 14.61 13.07 11.75 9.95 9.24 8.86 10.00
-0.56 1.58 1.14 -0.22 -0.56 0.54 -1.43 -1.94 -1.26 2.37 6.24 10.99 11.21 5.84 7.04 6.57 7.30 10.56 13.38 15.52 15.02 15.58 17.47 20.15 20.46 20.27 19.71 20.04 21.02 21.43 21.33 21.73 21.74 22.35 22.42 21.18 19.75 19.27 21.54 21.07 21.16 22.39 18.17 17.48 16.69 15.94 15.01 13.73 12.30 11.17 10.01 8.09 5.81 5.95
2.17 7.27 6.03 -4.61 -5.97 -5.10 -4.80 -1.60 1.99 10.78 12.98 10.85 6.89 6.43 6.11 10.55 11.15 11.03 13.48 14.25 15.37 16.33 15.83 16.13 17.96 19.95 20.90 20.96 20.48 19.71 20.03 21.76 21.43 20.12 18.89 17.59 17.67 16.50 17.59 18.96 19.05 19.29 19.29 19.21 21.67 15.42 11.37 11.74 10.87 9.08 7.32 6.43 4.35 2.42
1.06 4.43 -0.65 -9.63 -4.63 -2.72 -1.13 2.72 2.33 7.32 12.15 13.06 13.56 12.50 11.87 12.65 13.37 14.68 12.98 12.22 12.10 12.95 14.53 15.16 15.46 16.32 16.89 17.84 18.70 18.97 18.41 18.37 21.53 21.49 19.48 17.65 16.17 15.66 16.87 17.60 17.31 18.27 19.95 19.78 18.08 17.07 19.12 9.42 9.90 3.03 5.25 3.82 2.30 1.73
5.07 -0.12 -3.04 -3.14 -3.04 -2.39 -1.47 2.40 2.30 11.41 8.72 7.26 9.19 9.43 9.78 11.18 13.38 13.21 11.48 10.98 11.36 12.88 12.62 11.37 12.32 14.06 14.18 14.66 15.40 17.65 18.06 18.03 19.20 19.22 18.11 16.87 16.27 15.74 14.71 13.95 14.12 13.98 12.95 11.91 10.49 8.67 7.11 4.56 3.43 2.60 1.00 -0.75 1.70 -1.71
-1.67 -7.79 -3.68 -2.98 -2.55 -1.55 -2.49 -1.86 -2.22 1.06 2.94 4.39 3.75 6.08 8.18 8.73 6.91 8.98 10.73 8.98 8.87 8.24 12.31 10.76 10.73 11.89 14.65 15.94 16.77 18.43 19.93 16.95 17.39 17.80 16.73 15.49 13.99 13.19 12.97 12.49 12.00 11.55 10.53 8.61 7.38 5.91 4.89 3.27 2.00 1.58 1.17 -3.85 -8.11 -8.00
-12.28 -12.62 -12.23 -8.05 -4.80 -3.65 -4.49 -4.23 -5.27 -6.86 -2.87 -2.42 -0.90 1.38 -0.36 2.84 2.87 6.10 6.60 5.40 5.80 6.93 8.74 10.07 11.82 13.43 14.41 14.85 14.42 16.30 17.68 17.35 20.75 22.81 21.91 20.48 19.16 16.27 12.63 12.27 11.67 10.56 8.76 6.33 3.99 3.20 0.92 -1.22 -3.00 -6.03 -6.77 -7.46 -8.11 -7.86

GFSWCAN_sfc_wetblb_192.txt.gz
Wetbulb
43.18 42.67 42.13 41.84 42.26 43.00 43.11 43.07 42.93 43.00 43.12 43.09 43.18 43.23 43.31 43.34 43.04 38.30 35.64 36.10 32.82 25.86 27.40 28.71 28.90 25.33 26.52 26.19 21.27 23.48 21.90 21.83 23.94 19.57 21.90 21.50 19.65 19.67 18.12 20.75 19.58 19.87 19.62 19.44 23.51 21.13 17.28 30.74 29.39 26.93 29.91 29.44 30.25 34.10
42.16 42.21 42.35 42.63 42.93 42.43 42.50 42.50 42.50 42.73 42.75 42.77 42.94 43.26 43.49 43.30 42.77 40.10 31.52 36.20 36.80 33.20 27.77 31.56 31.71 32.38 31.40 29.99 26.41 25.70 22.65 22.84 24.90 25.70 23.22 24.74 22.67 19.65 18.05 15.34 22.04 18.51 23.01 19.35 23.25 22.52 28.69 29.16 30.43 32.81 31.68 31.24 32.61 31.21
41.43 41.67 41.95 42.15 42.57 42.78 42.19 42.24 42.18 42.37 42.50 42.58 42.71 43.02 42.98 43.18 43.20 40.24 32.68 33.92 36.59 33.08 29.94 29.88 28.70 32.73 33.39 32.95 33.64 25.01 25.58 27.71 26.09 27.22 22.54 21.22 17.89 22.50 16.39 18.44 21.95 24.10 26.48 24.22 23.48 27.10 29.91 32.87 34.96 34.48 31.88 32.42 35.09 34.27
40.54 41.11 41.61 41.64 41.87 41.87 41.94 41.81 41.74 41.82 42.11 42.25 42.42 42.78 42.90 42.93 42.93 41.29 36.50 35.09 32.26 30.66 23.33 23.57 29.96 27.34 31.77 32.25 31.94 32.71 31.18 29.17 28.35 26.80 20.12 18.82 19.53 23.72 16.08 19.74 19.97 23.98 24.91 24.43 25.57 29.06 30.61 32.67 33.56 33.68 34.31 33.67 32.72 32.93
40.52 40.79 41.13 41.26 41.24 41.06 41.16 41.19 41.09 40.98 41.39 41.81 42.15 42.05 42.41 42.55 42.35 38.55 38.09 37.02 35.84 29.67 20.68 23.18 27.46 31.10 30.61 29.65 29.97 30.94 30.48 28.67 24.58 24.14 23.91 21.85 24.90 22.68 23.16 22.67 21.17 26.10 24.91 22.69 22.25 29.40 28.91 31.74 32.22 32.38 32.03 32.51 35.60 32.71
40.25 40.45 40.90 40.95 40.97 40.78 40.45 40.29 40.72 40.84 40.68 40.97 41.38 41.77 41.97 41.86 39.60 34.04 28.35 32.02 35.82 33.84 28.86 17.94 26.58 26.29 26.06 26.68 26.78 26.73 28.90 28.37 28.31 26.25 24.59 25.76 26.89 24.51 20.49 18.37 25.47 27.45 28.84 30.02 28.25 32.69 32.77 33.13 34.15 34.36 33.29 35.45 36.35 34.65
39.90 40.26 40.72 40.53 40.58 40.34 40.39 40.65 40.63 40.73 40.76 40.84 40.95 41.45 41.69 41.70 35.04 31.71 27.11 30.45 37.23 35.56 27.57 20.45 18.97 25.33 26.81 27.28 26.50 25.70 27.22 27.21 27.07 27.07 25.54 24.63 24.51 27.89 23.03 18.42 25.44 28.55 29.22 30.05 31.47 31.36 28.98 31.39 30.88 32.97 33.27 34.04 34.53 33.73
40.11 40.22 40.21 40.24 40.05 40.09 40.16 40.00 40.33 40.78 40.75 41.17 41.23 41.30 41.47 41.11 38.03 33.91 36.81 40.46 39.71 33.61 31.63 21.72 16.52 18.77 27.16 19.29 17.33 26.93 23.32 23.72 26.66 24.82 25.50 24.35 25.59 25.26 19.63 24.63 27.89 29.10 29.84 30.13 31.34 32.88 33.23 34.76 32.33 31.90 31.84 31.19 31.34 31.61
39.42 39.82 39.58 39.51 39.67 39.63 39.72 40.36 40.38 40.29 40.51 40.92 40.70 40.81 37.17 34.56 32.58 30.30 39.15 39.02 37.55 32.69 19.49 17.93 13.25 9.32 24.76 21.78 22.39 21.29 28.88 23.63 27.64 23.77 24.97 26.81 24.02 20.37 23.81 25.65 27.17 29.31 29.55 30.35 32.36 32.65 33.06 30.32 32.22 32.29 30.64 30.46 30.29 30.96
38.53 39.01 39.04 38.99 38.87 38.94 39.78 40.02 40.12 40.09 40.54 40.39 35.09 30.38 27.41 30.61 37.99 35.88 29.40 22.69 28.55 29.75 24.99 20.87 20.19 14.67 23.09 21.93 20.35 19.04 19.79 19.43 20.01 24.17 27.55 24.70 22.84 28.33 30.12 31.20 31.95 31.87 31.38 31.92 28.70 28.04 30.19 30.52 32.55 32.31 31.05 31.07 31.53 32.07
37.73 37.88 38.05 38.17 38.47 38.86 39.49 39.85 39.78 39.45 38.66 31.52 28.24 24.16 29.67 35.85 28.21 18.93 10.77 20.64 13.73 14.13 22.07 24.02 22.20 20.85 26.89 20.32 20.33 24.84 16.65 18.39 15.20 21.72 23.62 22.69 24.27 29.72 32.49 31.73 33.19 33.46 32.67 32.68 33.41 34.59 35.41 34.24 35.56 34.24 30.18 31.00 31.51 32.24
37.78 37.67 37.78 38.13 38.62 38.59 39.27 39.62 39.26 34.70 32.32 32.63 29.59 31.18 28.41 20.88 14.39 10.64 4.09 9.89 16.15 15.94 23.59 24.59 25.40 26.18 26.70 28.32 23.14 23.67 20.43 23.87 15.35 25.21 26.07 23.60 28.42 29.50 28.24 28.14 28.37 29.87 33.42 33.48 33.12 34.94 34.99 33.65 33.22 31.78 30.87 30.51 31.76 32.99
37.92 37.84 38.17 38.33 38.91 39.06 39.34 39.55 39.06 38.88 38.32 36.25 31.37 24.77 19.68 11.11 6.98 4.92 -2.00 4.26 3.73 15.49 15.87 15.41 18.38 24.57 27.60 28.03 25.38 24.31 21.14 19.19 25.05 23.31 23.07 25.33 27.58 26.95 26.41 26.44 27.25 28.15 32.18 32.57 30.98 31.62 31.48 29.69 30.57 30.23 29.93 30.87 31.51 31.81
38.27 38.33 38.33 38.47 38.74 39.22 39.65 39.70 39.15 37.42 34.27 26.36 21.89 12.75 7.26 2.12 8.82 9.74 10.86 12.39 17.96 18.91 19.42 23.36 21.93 21.69 24.95 23.93 22.04 21.84 24.21 25.95 22.56 19.37 20.43 23.89 24.52 25.79 26.22 27.04 27.12 26.87 28.51 29.09 29.95 30.06 29.89 29.28 28.69 29.38 29.92 30.34 30.50 30.59
38.20 38.41 38.81 38.39 38.89 39.08 39.41 39.49 39.11 36.31 32.15 23.64 17.38 8.48 7.55 12.80 5.59 7.98 11.21 16.62 23.01 22.97 20.52 19.14 19.08 21.22 21.76 21.89 25.50 24.03 21.49 20.19 21.51 21.06 23.42 26.59 26.57 25.30 25.79 26.43 26.10 26.26 26.32 26.89 27.60 26.91 26.31 25.91 27.01 27.34 28.45 29.35 29.81 29.83
38.91 38.55 34.54 38.61 38.39 38.29 38.94 38.37 36.38 35.27 30.41 22.92 14.95 14.56 13.27 8.48 7.69 6.37 10.80 19.65 22.91 21.79 23.66 22.76 17.62 16.20 18.85 24.21 23.64 22.24 20.29 18.17 20.96 24.27 27.25 27.68 27.71 27.26 25.09 25.40 25.50 25.75 25.57 26.09 26.56 26.67 26.92 27.28 26.80 25.46 25.84 26.40 27.14 27.67
38.22 29.16 37.19 37.97 38.72 38.86 39.01 34.01 32.34 24.75 18.43 14.33 15.50 18.49 13.07 9.87 10.53 10.72 12.03 15.67 18.81 18.98 14.11 15.95 12.65 17.24 22.34 21.01 22.26 23.36 19.27 21.16 23.60 24.59 28.81 28.63 27.34 26.82 26.64 26.56 26.14 25.74 24.20 24.10 25.14 25.41 25.15 24.99 25.09 25.27 23.48 23.41 25.17 25.65
30.36 31.92 38.19 38.86 38.02 36.38 32.93 30.94 26.19 21.76 13.97 7.89 9.29 11.54 14.81 12.79 10.53 8.26 12.40 12.47 18.44 18.47 19.50 17.09 20.31 13.97 16.69 16.70 19.16 21.65 21.98 23.49 25.21 27.19 27.78 27.91 27.80 27.39 27.51 25.26 24.23 23.47 22.58 22.28 22.89 23.35 24.06 24.13 23.64 23.15 23.56 24.11 24.60 24.90
32.13 34.53 38.21 38.70 35.83 28.74 21.03 23.45 25.37 18.23 14.20 10.63 12.91 12.35 13.26 16.29 15.14 12.23 15.05 17.45 23.16 25.79 24.10 16.31 15.15 14.79 19.67 21.99 20.17 19.99 21.51 22.77 22.53 26.71 27.97 28.49 27.81 27.12 26.42 25.40 24.01 23.33 23.22 23.88 24.70 23.95 23.80 23.98 23.72 23.99 24.06 24.75 23.79 25.00
38.63 38.95 38.57 38.56 32.03 18.78 10.85 11.39 19.32 19.75 11.29 12.20 16.41 13.55 17.26 14.85 12.87 12.90 17.95 20.66 20.03 21.64 17.33 14.62 17.15 19.75 19.12 20.20 22.45 22.55 23.73 25.01 26.93 26.20 26.32 27.83 28.99 28.08 27.35 26.39 25.69 25.72 25.37 25.53 25.76 26.78 25.03 24.80 25.36 25.03 24.78 24.65 24.45 23.99
34.65 35.03 34.10 31.11 22.17 17.39 11.08 7.19 17.73 12.92 12.72 13.55 14.51 17.87 14.92 12.75 13.32 16.40 18.46 19.79 12.20 9.37 9.74 15.28 17.34 19.51 22.14 22.54 24.86 25.64 25.38 27.11 26.88 27.20 26.23 25.88 28.15 28.29 27.78 27.26 26.68 26.14 25.00 24.25 23.36 23.97 23.90 22.72 23.54 24.51 24.23 23.72 24.16 24.53
32.37 32.94 26.84 25.68 16.89 16.45 12.37 12.85 10.52 10.11 7.55 5.81 11.04 15.90 16.67 10.67 11.09 13.78 15.29 8.56 6.70 13.14 16.01 16.36 17.94 19.14 19.96 22.08 23.88 25.31 25.77 26.77 27.08 27.24 27.96 27.91 25.51 25.68 25.90 26.60 25.75 24.86 25.01 25.03 24.61 23.36 23.18 23.90 24.14 23.70 22.80 22.39 23.05 21.48
29.19 25.78 18.73 18.04 18.89 8.39 5.64 4.13 4.22 -0.62 3.19 3.52 7.40 9.87 12.51 10.99 13.36 17.10 8.52 9.71 14.25 16.44 19.35 18.87 19.17 20.18 21.42 24.71 24.72 24.38 25.28 25.12 24.01 24.60 24.75 24.22 24.35 25.01 24.41 24.87 26.34 24.93 23.36 23.51 25.05 24.44 23.85 25.57 24.21 21.47 21.32 19.98 19.10 18.02
23.28 14.91 15.09 10.80 4.88 2.41 -3.37 -3.51 -4.23 -2.48 -4.91 1.33 3.65 6.79 9.67 9.38 13.68 8.98 4.23 9.46 16.11 19.10 17.59 16.89 18.32 20.28 22.58 22.77 21.54 21.88 22.41 25.02 23.81 23.33 24.47 23.78 21.95 21.42 22.85 22.72 22.92 23.03 23.20 22.72 22.03 21.31 21.12 20.71 21.15 18.77 18.24 17.43 17.05 16.66
19.98 12.42 8.21 1.10 -8.66 -1.35 -4.09 -5.49 -8.40 -3.08 -3.15 -2.76 3.67 7.01 9.76 12.67 7.61 4.66 6.50 11.01 13.65 16.05 15.67 16.45 17.26 18.45 18.67 19.27 20.88 21.29 23.09 22.25 22.57 20.91 20.95 24.74 23.50 22.84 21.48 20.77 19.76 20.09 22.27 20.42 18.54 18.12 17.78 17.90 17.32 16.49 15.89 15.28 14.17 13.83
10.96 3.69 1.17 0.48 -4.52 1.09 -0.43 -2.16 -5.93 -3.33 -1.33 2.20 7.22 9.56 10.11 7.70 4.08 4.48 9.91 11.63 13.09 15.23 14.44 14.40 14.56 16.25 18.25 19.77 18.10 18.14 18.96 20.93 23.02 20.81 19.65 21.49 23.13 23.25 21.77 20.25 18.68 17.67 19.76 20.18 19.60 18.08 17.63 17.86 17.20 16.58 16.55 17.86 19.36 11.29
5.19 1.15 2.40 15.64 11.91 7.73 4.76 6.42 7.70 3.57 0.85 1.32 7.72 8.07 8.21 3.55 3.06 8.75 13.68 14.16 13.11 15.30 15.89 16.41 17.64 17.86 18.08 18.96 20.69 21.30 21.44 20.87 19.94 19.06 20.05 20.06 20.77 20.53 21.86 19.95 16.87 17.09 19.29 19.71 19.25 17.82 15.65 14.55 13.60 12.87 11.44 10.35 9.86 11.00
-0.51 0.39 1.29 -1.22 -1.08 0.18 -3.21 -3.14 -4.15 -1.04 5.14 9.69 10.18 5.23 4.90 5.06 7.09 10.04 12.89 15.26 14.69 15.07 15.98 18.97 20.49 20.16 19.80 19.86 20.46 21.16 22.05 22.87 22.42 22.64 22.15 20.79 19.38 20.02 21.45 20.87 21.09 22.49 18.17 17.46 16.81 16.32 15.56 14.28 12.75 11.47 10.19 8.77 7.29 7.19
1.93 7.18 4.87 -5.71 -6.52 -5.98 -5.50 -1.94 -0.24 9.43 12.31 10.10 7.51 7.66 6.83 10.43 11.23 10.94 13.09 13.78 14.58 15.45 15.15 15.34 16.73 18.52 20.55 21.53 20.73 19.71 19.84 21.32 21.90 19.95 17.88 16.71 16.62 15.94 18.50 19.46 19.52 19.65 19.79 19.72 21.68 15.83 12.50 12.23 10.96 9.17 7.62 7.03 5.67 5.88
3.35 4.74 -1.20 -9.47 -4.20 -2.31 -2.35 1.61 -0.57 4.21 10.95 12.94 13.69 12.08 11.80 12.69 13.24 14.39 12.58 11.84 11.50 12.22 13.74 14.66 15.28 15.39 15.85 16.97 18.74 19.13 19.31 19.31 21.66 22.39 19.31 17.15 15.76 16.64 18.20 19.09 19.92 20.53 20.81 19.96 18.48 18.15 19.92 13.35 13.58 8.72 8.60 6.96 6.03 5.29
5.23 -0.37 -3.47 -3.56 -3.29 -4.12 -3.83 0.20 1.35 10.36 8.06 7.56 9.74 9.85 10.86 11.84 13.58 13.31 11.35 10.79 11.43 12.27 13.21 11.53 12.24 13.97 13.86 14.36 14.78 16.96 17.37 18.48 19.75 19.14 18.38 17.71 17.39 16.74 16.28 16.15 16.23 15.76 14.52 13.14 12.41 11.45 9.93 7.85 7.05 5.94 4.54 3.12 5.10 1.37
-0.15 -7.05 -3.57 -3.23 -3.42 -3.49 -4.40 -5.77 -3.72 -0.95 2.62 6.91 5.62 6.93 9.19 10.55 9.04 9.78 10.39 9.09 9.29 9.11 12.26 10.82 10.36 11.40 14.06 15.71 17.32 19.14 20.43 18.24 18.58 18.19 17.20 16.29 15.10 14.48 14.45 14.15 13.98 13.69 12.57 11.16 10.32 9.40 8.01 6.87 5.75 4.81 2.55 -0.41 -2.44 -3.03
-12.20 -12.55 -12.69 -8.68 -5.44 -4.13 -5.52 -6.00 -5.75 -7.74 -3.50 -3.09 -0.19 2.97 2.64 4.18 5.62 6.59 9.00 8.18 7.72 7.76 8.60 9.82 11.53 12.92 14.12 14.53 15.87 18.76 19.85 19.15 21.58 23.64 22.87 21.31 19.93 17.37 14.30 13.67 13.24 12.43 10.95 9.19 7.89 7.03 5.82 3.95 2.23 0.82 -0.21 -2.97 -6.50 -7.36

GFSWCAN_sfc_wetblb_195.txt.gz
Wetbulb
43.38 43.14 42.96 43.00 43.22 43.50 43.67 43.72 43.64 43.49 43.32 42.90 42.93 43.08 43.11 43.12 43.05 37.30 33.13 34.56 30.36 24.33 26.04 27.69 27.87 24.37 25.58 24.37 19.22 22.57 21.80 21.36 23.90 20.05 21.41 20.48 19.53 18.28 16.65 18.94 19.14 20.05 19.52 19.61 22.49 20.16 16.64 29.57 29.94 27.30 30.61 30.07 30.29 31.20
43.76 43.41 43.11 42.64 42.49 42.52 42.76 42.92 42.72 42.54 42.38 42.24 42.37 42.62 42.91 43.39 42.82 39.46 30.91 35.34 35.87 32.94 27.06 30.15 30.61 30.54 30.51 29.33 25.48 24.53 22.33 21.79 24.13 19.87 24.39 23.62 21.97 20.65 18.31 14.61 20.77 17.15 20.25 18.61 21.39 21.71 27.32 28.29 29.69 32.32 31.96 30.80 30.72 31.64
42.76 42.69 42.33 42.00 41.95 42.49 41.93 41.96 41.87 41.83 41.82 42.03 42.29 42.49 42.75 42.93 42.71 40.75 33.59 35.64 36.64 31.62 28.99 28.52 26.87 29.27 32.37 31.83 32.07 24.69 24.73 26.92 25.32 25.61 21.67 20.05 13.26 20.37 13.32 16.04 20.80 24.09 24.68 21.54 22.76 24.41 26.47 29.18 31.82 32.41 30.42 30.63 32.95 32.87
41.61 41.56 41.61 41.43 41.52 41.79 41.88 41.70 41.54 41.33 41.24 41.55 41.97 42.18 42.33 42.81 42.41 40.73 37.45 37.07 32.66 29.56 19.12 22.07 29.08 26.41 30.32 31.50 31.41 31.73 30.43 28.23 26.94 26.21 19.60 17.36 15.51 22.37 15.01 18.13 18.57 22.82 21.52 21.86 22.57 25.75 26.91 30.17 31.98 33.54 34.22 33.68 32.19 32.23
40.91 40.75 40.94 41.04 41.11 41.17 40.83 40.75 40.69 40.46 40.30 40.59 41.04 41.61 42.16 42.23 41.67 38.11 35.50 36.78 37.49 31.65 23.27 22.92 26.70 30.30 28.85 28.77 29.00 29.72 29.04 27.99 22.07 23.43 19.76 18.84 23.05 21.23 21.21 20.38 19.23 23.41 21.98 19.51 19.17 26.23 26.38 28.10 31.59 31.80 31.12 32.53 32.15 31.10
40.41 40.29 40.56 40.72 40.81 40.68 40.34 39.86 39.78 40.02 40.29 40.28 40.53 41.09 41.61 41.31 40.38 32.94 27.76 31.66 35.93 35.00 29.17 21.96 26.89 25.51 24.87 25.02 25.65 25.22 27.60 26.99 25.51 23.95 22.50 24.20 25.51 22.28 15.55 16.18 23.63 25.73 27.56 28.70 25.61 29.60 29.77 30.91 32.20 32.44 31.67 32.58 33.07 32.79
40.04 40.05 40.08 40.62 40.44 40.27 40.12 39.96 39.96 39.71 40.15 40.55 40.77 40.78 40.99 41.09 34.41 28.96 26.61 30.75 36.73 36.03 28.19 20.38 19.46 24.96 26.04 26.95 25.59 24.86 25.61 26.16 26.61 26.40 24.71 23.22 23.16 25.84 21.31 16.88 23.88 26.51 27.65 28.27 29.90 29.68 27.07 29.16 28.38 31.25 30.22 32.08 33.62 33.17
39.54 39.84 40.19 40.28 40.13 39.92 39.63 39.44 39.51 40.17 40.16 40.45 40.87 41.13 40.91 40.57 38.09 34.07 35.74 39.94 37.33 32.97 31.10 21.39 15.98 17.88 25.85 16.89 17.34 25.85 22.37 25.83 26.82 25.30 24.11 22.62 23.10 23.79 17.96 22.59 25.05 26.75 27.87 28.34 29.04 30.27 29.82 31.11 31.15 30.96 31.00 30.99 30.40 31.21
39.67 39.94 39.58 40.08 39.74 39.48 39.34 39.62 39.69 39.50 39.72 40.48 40.54 40.69 35.30 33.97 31.09 29.67 39.29 38.60 36.36 30.66 24.16 16.67 11.89 8.94 24.06 21.30 23.20 22.83 24.91 18.75 23.69 20.57 22.59 23.25 20.07 17.70 21.96 23.82 25.29 27.07 26.82 27.38 29.79 30.15 29.68 28.80 29.45 30.70 30.71 29.67 29.42 31.58
38.83 39.08 39.57 39.42 39.44 38.94 39.07 39.40 39.46 39.98 39.72 40.01 33.75 29.39 23.69 29.89 38.01 34.84 28.12 22.75 28.60 30.17 27.37 20.05 19.78 13.34 21.12 22.31 21.15 22.53 18.72 19.35 10.66 20.99 23.85 20.81 19.95 26.09 27.79 28.78 29.40 29.93 30.38 29.39 26.79 26.28 27.30 27.42 28.94 30.05 30.92 32.16 32.89 33.45
38.57 38.98 39.05 38.60 38.36 38.30 38.72 39.19 39.09 38.99 37.99 30.07 23.67 23.92 29.22 35.10 27.24 17.47 8.02 19.94 14.38 12.40 21.46 23.10 19.06 18.41 24.87 17.51 19.92 24.64 20.37 18.37 16.00 19.64 20.42 21.06 21.75 27.19 30.70 30.29 31.48 31.62 31.02 31.59 31.59 31.59 30.34 30.32 30.36 30.56 30.88 31.05 31.14 30.98
38.05 37.91 37.81 37.66 37.81 38.02 38.25 38.80 38.87 33.49 30.33 30.95 27.71 30.62 27.76 19.87 10.84 8.56 1.52 8.85 13.06 14.74 20.00 21.52 21.22 22.23 23.53 27.27 23.20 23.33 18.90 20.78 14.39 24.40 22.93 21.15 26.90 28.89 28.81 28.55 28.73 29.25 27.67 28.05 31.01 31.44 29.69 31.10 32.74 35.16 34.95 31.24 30.45 30.81
37.92 37.60 37.60 37.59 37.83 38.22 38.43 38.67 38.99 38.72 37.58 35.26 30.24 22.13 19.53 8.93 5.55 3.63 0.07 5.22 4.49 13.42 16.99 13.82 16.01 20.80 22.67 27.03 23.91 22.04 19.04 17.56 24.92 21.97 21.63 24.64 27.25 28.12 28.30 27.74 27.36 28.58 28.20 27.98 29.11 30.88 32.83 32.91 34.95 33.55 31.02 30.28 30.43 31.13
38.26 38.04 37.84 37.81 38.08 38.36 38.69 38.97 39.18 37.85 31.22 26.32 16.40 8.80 8.30 -3.40 7.02 8.30 9.51 10.39 15.93 18.47 17.35 16.94 19.16 16.74 19.87 19.20 22.44 19.35 21.84 23.12 20.76 20.16 20.17 24.70 25.98 27.91 28.41 28.27 26.72 26.94 27.61 28.41 30.21 30.70 31.11 30.71 30.13 29.89 30.32 30.68 30.69 30.57
37.71 37.89 38.12 37.71 38.48 38.53 38.84 38.81 39.07 36.10 30.60 23.38 20.60 9.07 7.19 12.14 5.13 6.26 6.96 10.50 18.13 20.28 17.97 18.78 17.96 21.25 18.75 18.91 22.12 21.99 20.58 19.71 20.46 17.74 21.70 24.49 25.68 28.36 27.88 27.07 25.87 25.40 26.34 27.57 28.46 28.77 28.05 27.10 27.86 27.73 28.54 29.09 30.27 30.55
38.56 38.09 34.42 38.63 38.10 38.41 38.71 38.61 35.55 34.93 30.12 20.29 12.00 11.46 13.24 7.22 6.63 4.93 4.36 10.27 19.09 18.99 22.71 22.04 19.52 15.25 17.72 21.00 19.67 20.77 19.05 15.66 18.57 21.71 23.81 25.33 26.41 27.53 26.97 26.81 26.24 25.32 25.28 26.96 28.02 27.68 28.01 27.92 26.79 25.25 26.14 27.05 27.72 28.34
37.58 32.05 37.35 38.28 38.24 38.82 38.63 34.58 32.37 26.84 20.69 12.39 15.75 19.61 15.31 12.29 10.36 9.60 9.18 11.58 15.90 17.88 12.32 11.44 13.86 12.47 15.90 15.36 19.80 20.16 16.73 19.02 21.67 22.83 24.74 25.51 27.26 26.64 26.66 27.16 26.18 25.44 24.22 25.14 25.97 25.66 25.37 25.29 25.99 25.91 24.33 25.10 26.01 26.61
30.00 31.45 37.32 38.41 36.87 36.06 33.11 31.29 26.85 19.98 15.94 10.80 10.14 13.23 15.65 11.07 8.48 6.47 7.42 7.98 16.87 16.00 13.61 13.88 16.86 12.35 12.56 10.08 16.35 19.32 20.07 21.81 23.26 23.47 24.84 26.57 28.16 27.31 27.40 25.89 25.33 24.35 23.26 23.13 24.38 24.54 24.39 24.62 24.38 24.28 24.86 25.52 25.93 26.30
31.53 31.95 36.93 38.79 36.01 28.73 18.63 19.89 21.72 13.42 9.74 9.45 11.49 10.68 11.99 14.88 13.39 9.40 9.60 10.34 17.31 23.01 23.06 13.91 14.44 12.61 16.41 19.62 17.80 18.90 20.16 21.19 20.84 22.43 24.64 28.82 28.72 27.27 26.55 26.01 25.24 24.07 22.90 22.69 24.17 23.51 23.64 24.30 24.60 25.13 25.49 25.89 24.80 26.17
37.89 38.37 38.77 39.31 32.02 17.60 9.89 12.35 17.27 17.43 14.22 10.32 12.38 11.14 14.15 14.76 14.43 14.15 14.16 17.50 19.42 20.03 14.79 14.04 16.20 19.19 18.12 18.91 20.58 20.53 21.51 23.35 23.14 22.30 24.73 27.73 28.63 27.37 26.65 26.34 25.88 25.57 24.62 25.22 25.62 26.85 25.16 24.98 25.81 25.94 25.83 25.44 24.16 23.89
35.62 35.03 35.02 31.06 20.96 14.91 9.80 10.75 17.06 18.13 11.41 9.09 11.86 15.75 14.34 15.41 13.54 11.44 12.23 19.57 14.92 12.08 9.99 14.32 16.25 19.22 20.84 20.61 21.54 22.52 23.70 24.61 23.12 24.27 25.57 25.68 27.59 27.80 26.88 26.64 26.58 25.77 24.05 23.46 22.94 23.85 23.79 22.68 24.03 25.05 24.43 24.13 24.61 24.54
32.45 33.20 24.68 26.41 15.88 13.12 10.81 10.98 7.52 10.63 8.07 3.53 7.67 11.52 10.90 13.00 12.30 11.59 14.68 9.39 8.00 10.63 16.38 15.55 17.43 18.09 18.17 18.61 20.14 23.31 24.35 24.74 25.84 26.07 27.25 26.99 24.61 24.96 25.18 25.93 25.32 24.19 24.10 23.73 23.31 22.49 22.70 24.04 24.36 23.47 22.07 21.42 22.10 20.67
29.91 25.27 16.52 15.35 14.27 8.81 5.75 4.09 4.87 -1.30 2.46 -0.16 0.81 5.44 11.61 12.78 12.40 15.21 8.84 9.49 12.57 16.05 18.67 18.19 18.10 19.14 19.13 22.33 24.19 23.93 23.65 23.62 23.05 23.23 24.10 23.53 23.80 24.33 23.98 24.66 25.59 23.50 21.98 22.67 24.38 23.83 23.41 25.37 23.65 20.98 20.89 19.65 19.00 18.18
23.09 9.58 5.85 4.44 5.35 4.61 -2.65 -4.01 -4.85 -3.42 -5.98 -2.17 -2.13 1.98 7.09 9.86 11.54 8.10 7.21 11.30 15.58 18.32 17.50 16.35 17.38 17.44 20.24 21.15 20.78 21.12 21.67 22.42 23.37 22.76 23.30 23.12 21.20 20.51 21.90 21.90 22.18 22.49 22.66 22.36 21.95 21.65 21.79 21.50 21.66 19.21 18.73 17.86 17.32 16.53
13.75 7.93 5.48 1.67 -8.14 -0.81 -3.07 -5.59 -8.69 -3.45 -3.73 -7.06 -0.53 0.48 8.27 10.60 7.38 5.11 5.67 8.62 11.38 14.63 15.89 15.83 16.28 16.96 16.95 18.22 19.32 20.08 22.16 20.38 20.26 20.42 20.73 23.86 23.07 21.80 20.49 20.23 19.52 20.30 23.21 20.84 19.01 18.48 18.22 18.35 17.65 16.76 16.17 15.71 14.73 14.19
6.74 4.63 1.09 -1.41 -4.69 0.96 -0.15 -2.19 -6.60 -4.07 -4.32 -5.15 4.08 10.58 9.12 6.68 4.51 4.54 8.58 10.64 12.55 14.20 14.40 13.54 13.42 14.56 16.52 18.80 17.86 18.20 18.98 20.60 21.43 20.22 19.09 20.93 22.22 23.00 20.83 19.39 18.05 17.37 19.69 20.63 19.73 18.11 17.61 17.75 17.38 17.17 17.12 18.19 19.45 11.82
7.02 2.23 1.43 14.13 10.55 6.35 3.93 5.21 6.75 2.64 -3.47 -1.14 4.87 6.94 6.90 3.57 3.55 8.60 13.41 14.31 13.00 14.84 15.39 15.62 15.50 16.82 17.23 18.34 20.21 21.74 22.22 21.25 19.43 18.73 19.94 20.70 20.68 20.04 21.46 18.87 16.29 17.55 19.89 19.91 19.24 17.69 15.71 14.73 13.79 12.94 11.61 10.99 10.24 11.16
5.33 4.17 3.33 -1.92 -2.62 -1.20 -4.43 -4.77 -4.95 -4.03 1.07 8.77 9.13 4.26 4.31 4.82 7.59 9.98 12.79 14.97 14.41 14.59 15.11 17.56 19.37 19.07 18.96 19.84 20.35 20.67 22.05 23.12 23.04 22.15 21.71 20.59 19.59 20.26 21.59 21.23 21.34 22.49 18.59 18.24 17.50 16.87 15.93 14.55 12.99 11.71 10.47 9.02 7.35 7.49
1.51 5.79 4.04 -6.89 -7.44 -6.33 -5.41 -2.23 -1.73 5.53 10.79 7.54 5.57 7.10 7.76 10.40 11.01 11.20 13.11 13.58 14.24 14.36 14.36 14.41 15.99 17.34 19.46 20.94 20.81 20.19 20.13 21.14 22.13 18.55 16.62 15.71 16.24 16.13 18.91 19.50 19.42 19.50 19.68 19.65 21.73 16.31 13.39 13.00 11.76 10.02 8.60 7.52 6.80 7.73
0.07 4.40 1.05 -8.77 -4.05 -2.21 -2.55 -0.41 -2.83 -0.72 7.76 12.11 13.17 11.87 11.32 12.24 13.09 14.55 12.68 11.77 11.11 11.49 13.21 14.01 14.92 14.50 14.54 15.38 17.23 19.65 19.89 20.02 22.59 21.12 17.96 15.61 14.92 16.73 18.79 19.79 20.12 20.68 21.13 20.57 19.30 18.90 20.63 15.54 15.45 11.07 10.07 8.80 8.15 7.17
4.99 -0.69 -3.54 -3.95 -3.63 -5.02 -5.08 -2.07 -2.07 8.56 5.20 4.51 9.01 9.40 10.99 12.01 13.71 13.38 11.44 10.92 11.72 12.61 13.34 11.45 12.47 13.74 12.86 13.26 13.74 15.18 17.56 18.84 19.87 19.00 18.46 18.06 17.66 16.98 16.42 16.06 15.87 16.08 15.87 15.09 14.34 13.54 12.18 10.53 9.43 7.98 6.45 5.99 8.15 3.67
1.09 -5.72 -3.37 -3.41 -3.96 -3.53 -5.19 -6.86 -7.47 -4.33 -1.59 3.02 6.06 7.97 10.22 10.69 9.67 10.41 10.73 9.83 10.59 10.00 12.38 11.08 10.21 11.01 13.63 15.32 17.54 19.14 20.60 18.52 18.56 18.35 17.61 16.83 15.94 15.64 15.65 15.43 15.18 14.70 13.70 12.60 11.90 11.02 9.65 8.83 7.33 5.88 4.09 2.13 1.47 -0.14
-11.49 -11.07 -12.33 -9.20 -5.79 -4.01 -5.29 -6.00 -4.76 -5.90 -3.70 -2.02 0.01 2.51 3.51 5.03 7.24 8.74 10.59 9.07 8.40 8.23 8.91 9.97 11.21 12.73 14.45 16.34 17.62 19.73 20.81 20.11 22.06 23.53 22.97 21.69 20.44 17.89 14.93 14.46 14.14 13.42 12.26 10.82 9.81 9.07 7.78 6.40 5.30 3.82 2.34 0.48 -1.58 -3.07